Time,TemperatureF,DewpointF,PressureIn,WindDirection,WindDirectionDegrees,WindSpeedMPH,WindSpeedGustMPH,Humidity,HourlyPrecipIn,Conditions,Clouds,dailyrainin,SoftwareType,DateUTC
2013-05-19 00:00:00,49.2,44.3,30.21,East,95,0.0,2.0,83,0.00,,---,0.00,VWS V14.01,2013-05-19 04:00:00,
2013-05-19 00:01:00,49.2,44.3,30.21,East,95,2.0,2.0,83,0.00,,---,0.00,VWS V14.01,2013-05-19 04:01:00,
2013-05-19 00:02:00,49.1,44.2,30.21,East,95,0.0,2.0,83,0.00,,---,0.00,VWS V14.01,2013-05-19 04:02:00,
2013-05-19 00:03:00,49.1,44.2,30.21,East,95,0.0,2.0,83,0.00,,---,0.00,VWS V14.01,2013-05-19 04:03:00,
2013-05-19 00:04:00,49.1,44.2,30.21,East,95,1.0,2.0,83,0.00,,---,0.00,VWS V14.01,2013-05-19 04:04:00,
2013-05-19 00:05:00,48.9,44.3,30.21,East,95,0.0,2.0,84,0.00,,---,0.00,VWS V14.01,2013-05-19 04:05:00,
2013-05-19 00:06:00,48.9,44.3,30.21,East,95,0.0,2.0,84,0.00,,---,0.00,VWS V14.01,2013-05-19 04:06:00,
2013-05-19 00:07:00,48.8,44.2,30.21,East,95,0.0,2.0,84,0.00,,---,0.00,VWS V14.01,2013-05-19 04:07:00,
2013-05-19 00:08:00,48.8,44.2,30.21,East,95,0.0,2.0,84,0.00,,---,0.00,VWS V14.01,2013-05-19 04:08:00,
2013-05-19 00:09:00,48.8,44.2,30.21,East,95,0.0,2.0,84,0.00,,---,0.00,VWS V14.01,2013-05-19 04:09:00,
2013-05-19 00:10:00,48.8,44.2,30.21,East,95,2.0,2.0,84,0.00,,---,0.00,VWS V14.01,2013-05-19 04:10:00,
2013-05-19 00:11:00,48.8,44.5,30.21,East,95,1.0,3.0,85,0.00,,---,0.00,VWS V14.01,2013-05-19 04:11:00,
2013-05-19 00:12:00,48.6,44.3,30.21,East,95,0.0,3.0,85,0.00,,---,0.00,VWS V14.01,2013-05-19 04:12:00,
2013-05-19 00:13:00,48.6,44.3,30.21,East,95,0.0,3.0,85,0.00,,---,0.00,VWS V14.01,2013-05-19 04:13:00,
2013-05-19 00:14:00,48.6,44.3,30.21,East,95,0.0,3.0,85,0.00,,---,0.00,VWS V14.01,2013-05-19 04:14:00,
2013-05-19 00:15:00,48.6,44.3,30.21,East,95,0.0,3.0,85,0.00,,---,0.00,VWS V14.01,2013-05-19 04:15:00,
2013-05-19 00:16:00,48.6,44.3,30.21,East,95,0.0,3.0,85,0.00,,---,0.00,VWS V14.01,2013-05-19 04:16:00,
2013-05-19 00:17:00,48.6,44.6,30.21,East,95,0.0,3.0,86,0.00,,---,0.00,VWS V14.01,2013-05-19 04:17:00,
2013-05-19 00:18:00,48.5,44.5,30.21,East,95,0.0,3.0,86,0.00,,---,0.00,VWS V14.01,2013-05-19 04:18:00,
2013-05-19 00:19:00,48.5,44.2,30.21,East,95,0.0,3.0,85,0.00,,---,0.00,VWS V14.01,2013-05-19 04:19:00,
2013-05-19 00:20:00,48.5,44.2,30.21,East,95,0.0,3.0,85,0.00,,---,0.00,VWS V14.01,2013-05-19 04:20:00,
2013-05-19 00:21:00,48.5,44.5,30.21,East,95,0.0,3.0,86,0.00,,---,0.00,VWS V14.01,2013-05-19 04:21:00,
2013-05-19 00:22:00,48.5,44.2,30.21,East,95,0.0,3.0,85,0.00,,---,0.00,VWS V14.01,2013-05-19 04:22:00,
2013-05-19 00:23:00,48.3,44.3,30.21,East,95,0.0,3.0,86,0.00,,---,0.00,VWS V14.01,2013-05-19 04:23:00,
2013-05-19 00:24:00,48.3,44.3,30.21,East,95,0.0,3.0,86,0.00,,---,0.00,VWS V14.01,2013-05-19 04:24:00,
2013-05-19 00:25:00,48.3,44.3,30.21,East,95,0.0,3.0,86,0.00,,---,0.00,VWS V14.01,2013-05-19 04:25:00,
2013-05-19 00:26:00,48.3,44.3,30.21,East,95,0.0,3.0,86,0.00,,---,0.00,VWS V14.01,2013-05-19 04:26:00,
2013-05-19 00:27:00,48.2,44.2,30.21,East,95,3.0,3.0,86,0.00,,---,0.00,VWS V14.01,2013-05-19 04:27:00,
2013-05-19 00:28:00,48.2,44.2,30.21,East,95,2.0,3.0,86,0.00,,---,0.00,VWS V14.01,2013-05-19 04:28:00,
2013-05-19 00:29:00,48.2,44.2,30.22,East,95,0.0,3.0,86,0.00,,---,0.00,VWS V14.01,2013-05-19 04:29:00,
2013-05-19 00:30:00,48.2,44.2,30.22,East,95,0.0,3.0,86,0.00,,---,0.00,VWS V14.01,2013-05-19 04:30:00,
2013-05-19 00:31:00,48.2,44.2,30.22,East,95,0.0,0.0,86,0.00,,---,0.00,VWS V14.01,2013-05-19 04:31:00,
2013-05-19 00:32:00,48.2,44.2,30.22,East,95,0.0,0.0,86,0.00,,---,0.00,VWS V14.01,2013-05-19 04:32:00,
2013-05-19 00:33:00,48.2,44.2,30.22,East,95,0.0,0.0,86,0.00,,---,0.00,VWS V14.01,2013-05-19 04:33:00,
2013-05-19 00:34:00,48.0,44.0,30.22,East,95,0.0,0.0,86,0.00,,---,0.00,VWS V14.01,2013-05-19 04:34:00,
2013-05-19 00:35:00,48.0,44.0,30.22,East,95,0.0,0.0,86,0.00,,---,0.00,VWS V14.01,2013-05-19 04:35:00,
2013-05-19 00:36:00,48.0,44.0,30.22,East,95,2.0,3.0,86,0.00,,---,0.00,VWS V14.01,2013-05-19 04:36:00,
2013-05-19 00:37:00,48.0,44.0,30.22,East,95,0.0,3.0,86,0.00,,---,0.00,VWS V14.01,2013-05-19 04:37:00,
2013-05-19 00:38:00,48.0,44.0,30.22,East,95,0.0,3.0,86,0.00,,---,0.00,VWS V14.01,2013-05-19 04:38:00,
2013-05-19 00:39:00,48.0,44.0,30.22,East,95,0.0,3.0,86,0.00,,---,0.00,VWS V14.01,2013-05-19 04:39:00,
2013-05-19 00:40:00,48.0,44.0,30.22,East,95,0.0,3.0,86,0.00,,---,0.00,VWS V14.01,2013-05-19 04:40:00,
2013-05-19 00:41:00,48.0,44.0,30.22,East,95,0.0,3.0,86,0.00,,---,0.00,VWS V14.01,2013-05-19 04:41:00,
2013-05-19 00:42:00,48.0,44.0,30.22,East,95,0.0,3.0,86,0.00,,---,0.00,VWS V14.01,2013-05-19 04:42:00,
2013-05-19 00:43:00,47.9,43.9,30.22,East,95,0.0,3.0,86,0.00,,---,0.00,VWS V14.01,2013-05-19 04:43:00,
2013-05-19 00:44:00,47.9,43.9,30.22,East,95,0.0,3.0,86,0.00,,---,0.00,VWS V14.01,2013-05-19 04:44:00,
2013-05-19 00:45:00,47.9,43.9,30.21,East,95,0.0,3.0,86,0.00,,---,0.00,VWS V14.01,2013-05-19 04:45:00,
2013-05-19 00:46:00,47.9,43.9,30.21,East,95,0.0,3.0,86,0.00,,---,0.00,VWS V14.01,2013-05-19 04:46:00,
2013-05-19 00:47:00,47.9,43.9,30.21,East,95,0.0,3.0,86,0.00,,---,0.00,VWS V14.01,2013-05-19 04:47:00,
2013-05-19 00:48:00,47.9,43.9,30.21,East,95,0.0,3.0,86,0.00,,---,0.00,VWS V14.01,2013-05-19 04:48:00,
2013-05-19 00:49:00,47.9,43.9,30.21,East,95,0.0,3.0,86,0.00,,---,0.00,VWS V14.01,2013-05-19 04:49:00,
2013-05-19 00:50:00,47.9,43.9,30.21,East,95,0.0,3.0,86,0.00,,---,0.00,VWS V14.01,2013-05-19 04:50:00,
2013-05-19 00:51:00,47.9,44.2,30.21,East,95,0.0,3.0,87,0.00,,---,0.00,VWS V14.01,2013-05-19 04:51:00,
2013-05-19 00:52:00,47.9,44.2,30.21,East,95,0.0,3.0,87,0.00,,---,0.00,VWS V14.01,2013-05-19 04:52:00,
2013-05-19 00:53:00,47.9,44.2,30.21,East,95,0.0,3.0,87,0.00,,---,0.00,VWS V14.01,2013-05-19 04:53:00,
2013-05-19 00:54:00,47.9,43.9,30.21,East,95,0.0,3.0,86,0.00,,---,0.00,VWS V14.01,2013-05-19 04:54:00,
2013-05-19 00:55:00,47.9,43.9,30.21,East,95,0.0,3.0,86,0.00,,---,0.00,VWS V14.01,2013-05-19 04:55:00,
2013-05-19 00:56:00,47.9,44.2,30.21,East,95,0.0,3.0,87,0.00,,---,0.00,VWS V14.01,2013-05-19 04:56:00,
2013-05-19 00:57:00,47.9,44.2,30.21,East,95,0.0,3.0,87,0.00,,---,0.00,VWS V14.01,2013-05-19 04:57:00,
2013-05-19 00:58:00,47.9,44.2,30.21,East,95,0.0,3.0,87,0.00,,---,0.00,VWS V14.01,2013-05-19 04:58:00,
2013-05-19 00:59:00,47.9,44.2,30.21,East,95,2.0,3.0,87,0.00,,---,0.00,VWS V14.01,2013-05-19 04:59:00,
2013-05-19 01:00:00,48.0,44.3,30.21,East,95,2.0,3.0,87,0.00,,---,0.00,VWS V14.01,2013-05-19 05:00:00,
2013-05-19 01:01:00,48.0,44.3,30.21,East,95,0.0,2.0,87,0.00,,---,0.00,VWS V14.01,2013-05-19 05:01:00,
2013-05-19 01:02:00,48.0,44.3,30.21,East,95,0.0,2.0,87,0.00,,---,0.00,VWS V14.01,2013-05-19 05:02:00,
2013-05-19 01:03:00,48.0,44.3,30.21,East,95,0.0,2.0,87,0.00,,---,0.00,VWS V14.01,2013-05-19 05:03:00,
2013-05-19 01:04:00,48.0,44.3,30.21,East,95,0.0,2.0,87,0.00,,---,0.00,VWS V14.01,2013-05-19 05:04:00,
2013-05-19 01:05:00,47.9,44.2,30.21,East,95,0.0,2.0,87,0.00,,---,0.00,VWS V14.01,2013-05-19 05:05:00,
2013-05-19 01:06:00,47.9,44.2,30.21,East,95,0.0,2.0,87,0.00,,---,0.00,VWS V14.01,2013-05-19 05:06:00,
2013-05-19 01:07:00,48.0,44.3,30.21,East,95,0.0,3.0,87,0.00,,---,0.00,VWS V14.01,2013-05-19 05:07:00,
2013-05-19 01:08:00,48.0,44.3,30.21,East,95,0.0,3.0,87,0.00,,---,0.00,VWS V14.01,2013-05-19 05:08:00,
2013-05-19 01:09:00,48.0,44.3,30.21,East,95,0.0,3.0,87,0.00,,---,0.00,VWS V14.01,2013-05-19 05:09:00,
2013-05-19 01:10:00,48.0,44.3,30.21,East,95,0.0,3.0,87,0.00,,---,0.00,VWS V14.01,2013-05-19 05:10:00,
2013-05-19 01:11:00,48.0,44.3,30.21,East,95,2.0,3.0,87,0.00,,---,0.00,VWS V14.01,2013-05-19 05:11:00,
2013-05-19 01:12:00,48.2,44.5,30.21,East,95,0.0,3.0,87,0.00,,---,0.00,VWS V14.01,2013-05-19 05:12:00,
2013-05-19 01:13:00,48.2,44.5,30.21,East,95,0.0,3.0,87,0.00,,---,0.00,VWS V14.01,2013-05-19 05:13:00,
2013-05-19 01:14:00,48.2,44.5,30.21,East,95,0.0,3.0,87,0.00,,---,0.00,VWS V14.01,2013-05-19 05:14:00,
2013-05-19 01:15:00,48.2,44.5,30.21,East,95,0.0,3.0,87,0.00,,---,0.00,VWS V14.01,2013-05-19 05:15:00,
2013-05-19 01:16:00,48.2,44.5,30.21,East,95,0.0,3.0,87,0.00,,---,0.00,VWS V14.01,2013-05-19 05:16:00,
2013-05-19 01:17:00,48.2,44.5,30.21,East,95,0.0,3.0,87,0.00,,---,0.00,VWS V14.01,2013-05-19 05:17:00,
2013-05-19 01:18:00,48.2,44.5,30.21,East,95,0.0,3.0,87,0.00,,---,0.00,VWS V14.01,2013-05-19 05:18:00,
2013-05-19 01:19:00,48.2,44.5,30.21,East,95,0.0,3.0,87,0.00,,---,0.00,VWS V14.01,2013-05-19 05:19:00,
2013-05-19 01:20:00,48.2,44.5,30.21,East,95,0.0,3.0,87,0.00,,---,0.00,VWS V14.01,2013-05-19 05:20:00,
2013-05-19 01:21:00,48.2,44.5,30.21,East,95,0.0,3.0,87,0.00,,---,0.00,VWS V14.01,2013-05-19 05:21:00,
2013-05-19 01:22:00,48.2,44.5,30.21,East,95,1.0,3.0,87,0.00,,---,0.00,VWS V14.01,2013-05-19 05:22:00,
2013-05-19 01:23:00,48.2,44.2,30.21,East,95,0.0,3.0,86,0.00,,---,0.00,VWS V14.01,2013-05-19 05:23:00,
2013-05-19 01:24:00,48.2,44.2,30.21,East,95,0.0,3.0,86,0.00,,---,0.00,VWS V14.01,2013-05-19 05:24:00,
2013-05-19 01:25:00,48.2,44.2,30.21,East,95,0.0,3.0,86,0.00,,---,0.00,VWS V14.01,2013-05-19 05:25:00,
2013-05-19 01:26:00,48.2,44.2,30.21,East,95,0.0,3.0,86,0.00,,---,0.00,VWS V14.01,2013-05-19 05:26:00,
2013-05-19 01:27:00,48.2,44.2,30.21,East,95,0.0,3.0,86,0.00,,---,0.00,VWS V14.01,2013-05-19 05:27:00,
2013-05-19 01:28:00,48.2,44.2,30.21,East,95,0.0,3.0,86,0.00,,---,0.00,VWS V14.01,2013-05-19 05:28:00,
2013-05-19 01:29:00,48.2,44.2,30.21,East,95,0.0,3.0,86,0.00,,---,0.00,VWS V14.01,2013-05-19 05:29:00,
2013-05-19 01:30:00,48.2,44.2,30.21,East,95,0.0,3.0,86,0.00,,---,0.00,VWS V14.01,2013-05-19 05:30:00,
2013-05-19 01:31:00,48.2,44.2,30.21,East,95,0.0,0.0,86,0.00,,---,0.00,VWS V14.01,2013-05-19 05:31:00,
2013-05-19 01:32:00,48.2,44.2,30.21,East,95,0.0,0.0,86,0.00,,---,0.00,VWS V14.01,2013-05-19 05:32:00,
2013-05-19 01:33:00,48.2,44.2,30.21,East,95,0.0,0.0,86,0.00,,---,0.00,VWS V14.01,2013-05-19 05:33:00,
2013-05-19 01:34:00,48.2,44.2,30.21,East,95,0.0,0.0,86,0.00,,---,0.00,VWS V14.01,2013-05-19 05:34:00,
2013-05-19 01:35:00,48.2,44.2,30.21,East,95,0.0,0.0,86,0.00,,---,0.00,VWS V14.01,2013-05-19 05:35:00,
2013-05-19 01:36:00,48.2,44.2,30.21,East,95,0.0,0.0,86,0.00,,---,0.00,VWS V14.01,2013-05-19 05:36:00,
2013-05-19 01:37:00,48.2,44.2,30.21,East,95,0.0,0.0,86,0.00,,---,0.00,VWS V14.01,2013-05-19 05:37:00,
2013-05-19 01:38:00,48.0,44.0,30.21,East,95,0.0,0.0,86,0.00,,---,0.00,VWS V14.01,2013-05-19 05:38:00,
2013-05-19 01:39:00,48.0,44.0,30.21,East,95,0.0,0.0,86,0.00,,---,0.00,VWS V14.01,2013-05-19 05:39:00,
2013-05-19 01:40:00,48.0,44.0,30.21,East,95,0.0,0.0,86,0.00,,---,0.00,VWS V14.01,2013-05-19 05:40:00,
2013-05-19 01:41:00,48.0,44.0,30.21,East,95,0.0,0.0,86,0.00,,---,0.00,VWS V14.01,2013-05-19 05:41:00,
2013-05-19 01:42:00,48.0,44.0,30.21,East,95,0.0,0.0,86,0.00,,---,0.00,VWS V14.01,2013-05-19 05:42:00,
2013-05-19 01:43:00,48.0,44.0,30.21,East,95,0.0,0.0,86,0.00,,---,0.00,VWS V14.01,2013-05-19 05:43:00,
2013-05-19 01:44:00,48.0,44.0,30.21,East,95,0.0,0.0,86,0.00,,---,0.00,VWS V14.01,2013-05-19 05:44:00,
2013-05-19 01:45:00,48.0,44.0,30.21,East,95,0.0,0.0,86,0.00,,---,0.00,VWS V14.01,2013-05-19 05:45:00,
2013-05-19 01:46:00,48.0,44.0,30.21,East,95,0.0,0.0,86,0.00,,---,0.00,VWS V14.01,2013-05-19 05:46:00,
2013-05-19 01:47:00,48.0,44.0,30.21,East,95,0.0,0.0,86,0.00,,---,0.00,VWS V14.01,2013-05-19 05:47:00,
2013-05-19 01:48:00,48.0,44.0,30.21,East,95,0.0,0.0,86,0.00,,---,0.00,VWS V14.01,2013-05-19 05:48:00,
2013-05-19 01:49:00,48.0,44.0,30.21,East,95,0.0,0.0,86,0.00,,---,0.00,VWS V14.01,2013-05-19 05:49:00,
2013-05-19 01:50:00,48.0,44.0,30.21,East,95,0.0,0.0,86,0.00,,---,0.00,VWS V14.01,2013-05-19 05:50:00,
2013-05-19 01:51:00,48.0,44.0,30.21,East,95,0.0,0.0,86,0.00,,---,0.00,VWS V14.01,2013-05-19 05:51:00,
2013-05-19 01:52:00,48.0,44.0,30.21,East,95,0.0,0.0,86,0.00,,---,0.00,VWS V14.01,2013-05-19 05:52:00,
2013-05-19 01:53:00,48.0,44.0,30.21,East,95,0.0,0.0,86,0.00,,---,0.00,VWS V14.01,2013-05-19 05:53:00,
2013-05-19 01:54:00,48.0,44.0,30.21,East,95,0.0,0.0,86,0.00,,---,0.00,VWS V14.01,2013-05-19 05:54:00,
2013-05-19 01:55:00,48.0,44.0,30.21,East,95,0.0,0.0,86,0.00,,---,0.00,VWS V14.01,2013-05-19 05:55:00,
2013-05-19 01:56:00,48.0,44.0,30.21,East,95,0.0,0.0,86,0.00,,---,0.00,VWS V14.01,2013-05-19 05:56:00,
2013-05-19 01:57:00,48.0,44.0,30.21,East,95,0.0,0.0,86,0.00,,---,0.00,VWS V14.01,2013-05-19 05:57:00,
2013-05-19 01:58:00,48.0,44.0,30.21,East,95,0.0,0.0,86,0.00,,---,0.00,VWS V14.01,2013-05-19 05:58:00,
2013-05-19 01:59:00,48.0,44.0,30.20,East,95,0.0,0.0,86,0.00,,---,0.00,VWS V14.01,2013-05-19 05:59:00,
2013-05-19 02:00:00,48.0,44.0,30.20,East,95,0.0,0.0,86,0.00,,---,0.00,VWS V14.01,2013-05-19 06:00:00,
2013-05-19 02:01:00,47.9,43.9,30.20,East,95,0.0,0.0,86,0.00,,---,0.00,VWS V14.01,2013-05-19 06:01:00,
2013-05-19 02:02:00,47.9,43.9,30.20,East,95,0.0,0.0,86,0.00,,---,0.00,VWS V14.01,2013-05-19 06:02:00,
2013-05-19 02:03:00,47.9,43.9,30.20,East,95,0.0,0.0,86,0.00,,---,0.00,VWS V14.01,2013-05-19 06:03:00,
2013-05-19 02:04:00,47.9,43.9,30.20,East,95,0.0,0.0,86,0.00,,---,0.00,VWS V14.01,2013-05-19 06:04:00,
2013-05-19 02:05:00,47.9,43.9,30.20,East,95,0.0,0.0,86,0.00,,---,0.00,VWS V14.01,2013-05-19 06:05:00,
2013-05-19 02:06:00,47.7,43.7,30.20,East,95,0.0,0.0,86,0.00,,---,0.00,VWS V14.01,2013-05-19 06:06:00,
2013-05-19 02:07:00,47.7,43.7,30.20,East,95,0.0,0.0,86,0.00,,---,0.00,VWS V14.01,2013-05-19 06:07:00,
2013-05-19 02:08:00,47.7,43.7,30.20,East,95,0.0,0.0,86,0.00,,---,0.00,VWS V14.01,2013-05-19 06:08:00,
2013-05-19 02:09:00,47.6,43.6,30.20,East,95,0.0,0.0,86,0.00,,---,0.00,VWS V14.01,2013-05-19 06:09:00,
2013-05-19 02:10:00,47.6,43.6,30.20,East,95,0.0,0.0,86,0.00,,---,0.00,VWS V14.01,2013-05-19 06:10:00,
2013-05-19 02:11:00,47.6,43.6,30.20,East,95,0.0,0.0,86,0.00,,---,0.00,VWS V14.01,2013-05-19 06:11:00,
2013-05-19 02:12:00,47.4,43.4,30.20,East,95,0.0,0.0,86,0.00,,---,0.00,VWS V14.01,2013-05-19 06:12:00,
2013-05-19 02:13:00,47.4,43.4,30.20,East,95,0.0,0.0,86,0.00,,---,0.00,VWS V14.01,2013-05-19 06:13:00,
2013-05-19 02:14:00,47.4,43.7,30.20,East,95,0.0,0.0,87,0.00,,---,0.00,VWS V14.01,2013-05-19 06:14:00,
2013-05-19 02:15:00,47.4,43.7,30.20,East,95,0.0,0.0,87,0.00,,---,0.00,VWS V14.01,2013-05-19 06:15:00,
2013-05-19 02:16:00,47.3,43.6,30.20,East,95,0.0,0.0,87,0.00,,---,0.00,VWS V14.01,2013-05-19 06:16:00,
2013-05-19 02:17:00,47.3,43.6,30.20,East,95,0.0,0.0,87,0.00,,---,0.00,VWS V14.01,2013-05-19 06:17:00,
2013-05-19 02:18:00,47.3,43.6,30.20,East,95,0.0,0.0,87,0.00,,---,0.00,VWS V14.01,2013-05-19 06:18:00,
2013-05-19 02:19:00,47.3,43.6,30.20,East,95,0.0,0.0,87,0.00,,---,0.00,VWS V14.01,2013-05-19 06:19:00,
2013-05-19 02:20:00,47.3,43.6,30.20,East,95,0.0,0.0,87,0.00,,---,0.00,VWS V14.01,2013-05-19 06:20:00,
2013-05-19 02:21:00,47.1,43.4,30.20,East,95,0.0,0.0,87,0.00,,---,0.00,VWS V14.01,2013-05-19 06:21:00,
2013-05-19 02:22:00,47.1,43.4,30.20,East,95,0.0,0.0,87,0.00,,---,0.00,VWS V14.01,2013-05-19 06:22:00,
2013-05-19 02:23:00,47.1,43.4,30.20,East,95,0.0,0.0,87,0.00,,---,0.00,VWS V14.01,2013-05-19 06:23:00,
2013-05-19 02:24:00,47.1,43.4,30.20,East,95,0.0,0.0,87,0.00,,---,0.00,VWS V14.01,2013-05-19 06:24:00,
2013-05-19 02:25:00,47.1,43.4,30.20,East,95,0.0,0.0,87,0.00,,---,0.00,VWS V14.01,2013-05-19 06:25:00,
2013-05-19 02:26:00,47.1,43.4,30.20,East,95,0.0,0.0,87,0.00,,---,0.00,VWS V14.01,2013-05-19 06:26:00,
2013-05-19 02:27:00,47.1,43.7,30.20,East,95,0.0,0.0,88,0.00,,---,0.00,VWS V14.01,2013-05-19 06:27:00,
2013-05-19 02:28:00,47.1,43.7,30.20,East,95,0.0,0.0,88,0.00,,---,0.00,VWS V14.01,2013-05-19 06:28:00,
2013-05-19 02:29:00,47.1,43.7,30.20,East,95,0.0,0.0,88,0.00,,---,0.00,VWS V14.01,2013-05-19 06:29:00,
2013-05-19 02:30:00,47.1,43.7,30.20,East,95,0.0,0.0,88,0.00,,---,0.00,VWS V14.01,2013-05-19 06:30:00,
2013-05-19 02:31:00,47.0,43.6,30.20,East,95,0.0,0.0,88,0.00,,---,0.00,VWS V14.01,2013-05-19 06:31:00,
2013-05-19 02:32:00,47.0,43.6,30.20,East,95,0.0,0.0,88,0.00,,---,0.00,VWS V14.01,2013-05-19 06:32:00,
2013-05-19 02:33:00,47.0,43.6,30.20,East,95,0.0,0.0,88,0.00,,---,0.00,VWS V14.01,2013-05-19 06:33:00,
2013-05-19 02:34:00,47.0,43.6,30.20,East,95,0.0,0.0,88,0.00,,---,0.00,VWS V14.01,2013-05-19 06:34:00,
2013-05-19 02:35:00,47.0,43.6,30.20,East,95,0.0,0.0,88,0.00,,---,0.00,VWS V14.01,2013-05-19 06:35:00,
2013-05-19 02:36:00,47.0,43.6,30.20,East,95,0.0,0.0,88,0.00,,---,0.00,VWS V14.01,2013-05-19 06:36:00,
2013-05-19 02:37:00,47.0,43.6,30.20,East,95,0.0,0.0,88,0.00,,---,0.00,VWS V14.01,2013-05-19 06:37:00,
2013-05-19 02:38:00,46.8,43.4,30.20,East,95,0.0,0.0,88,0.00,,---,0.00,VWS V14.01,2013-05-19 06:38:00,
2013-05-19 02:39:00,46.8,43.4,30.20,East,95,0.0,0.0,88,0.00,,---,0.00,VWS V14.01,2013-05-19 06:39:00,
2013-05-19 02:40:00,46.8,43.4,30.20,East,95,0.0,0.0,88,0.00,,---,0.00,VWS V14.01,2013-05-19 06:40:00,
2013-05-19 02:41:00,46.8,43.4,30.20,East,95,0.0,0.0,88,0.00,,---,0.00,VWS V14.01,2013-05-19 06:41:00,
2013-05-19 02:42:00,46.8,43.4,30.20,East,95,0.0,0.0,88,0.00,,---,0.00,VWS V14.01,2013-05-19 06:42:00,
2013-05-19 02:43:00,46.8,43.4,30.20,East,95,0.0,0.0,88,0.00,,---,0.00,VWS V14.01,2013-05-19 06:43:00,
2013-05-19 02:44:00,46.8,43.4,30.20,East,95,0.0,0.0,88,0.00,,---,0.00,VWS V14.01,2013-05-19 06:44:00,
2013-05-19 02:45:00,46.8,43.4,30.20,East,95,0.0,0.0,88,0.00,,---,0.00,VWS V14.01,2013-05-19 06:45:00,
2013-05-19 02:46:00,46.7,43.3,30.20,East,95,0.0,0.0,88,0.00,,---,0.00,VWS V14.01,2013-05-19 06:46:00,
2013-05-19 02:47:00,46.7,43.3,30.20,East,95,0.0,0.0,88,0.00,,---,0.00,VWS V14.01,2013-05-19 06:47:00,
2013-05-19 02:48:00,46.7,43.3,30.20,East,95,0.0,0.0,88,0.00,,---,0.00,VWS V14.01,2013-05-19 06:48:00,
2013-05-19 02:49:00,46.7,43.6,30.20,East,95,0.0,0.0,89,0.00,,---,0.00,VWS V14.01,2013-05-19 06:49:00,
2013-05-19 02:50:00,46.7,43.6,30.20,East,95,0.0,1.0,89,0.00,,---,0.00,VWS V14.01,2013-05-19 06:50:00,
2013-05-19 02:51:00,46.7,43.6,30.20,East,95,0.0,1.0,89,0.00,,---,0.00,VWS V14.01,2013-05-19 06:51:00,
2013-05-19 02:52:00,46.7,43.6,30.20,East,95,0.0,1.0,89,0.00,,---,0.00,VWS V14.01,2013-05-19 06:52:00,
2013-05-19 02:53:00,46.5,43.4,30.20,East,95,0.0,1.0,89,0.00,,---,0.00,VWS V14.01,2013-05-19 06:53:00,
2013-05-19 02:54:00,46.5,43.4,30.20,East,95,0.0,1.0,89,0.00,,---,0.00,VWS V14.01,2013-05-19 06:54:00,
2013-05-19 02:55:00,46.5,43.4,30.20,East,95,0.0,1.0,89,0.00,,---,0.00,VWS V14.01,2013-05-19 06:55:00,
2013-05-19 02:56:00,46.5,43.4,30.20,East,95,0.0,1.0,89,0.00,,---,0.00,VWS V14.01,2013-05-19 06:56:00,
2013-05-19 02:57:00,46.7,43.6,30.20,East,95,0.0,1.0,89,0.00,,---,0.00,VWS V14.01,2013-05-19 06:57:00,
2013-05-19 02:58:00,46.7,43.6,30.20,East,95,0.0,1.0,89,0.00,,---,0.00,VWS V14.01,2013-05-19 06:58:00,
2013-05-19 02:59:00,46.7,43.6,30.21,East,95,0.0,1.0,89,0.00,,---,0.00,VWS V14.01,2013-05-19 06:59:00,
2013-05-19 03:00:00,46.7,43.6,30.21,East,95,0.0,1.0,89,0.00,,---,0.00,VWS V14.01,2013-05-19 07:00:00,
2013-05-19 03:01:00,46.7,43.6,30.21,East,95,0.0,0.0,89,0.00,,---,0.00,VWS V14.01,2013-05-19 07:01:00,
2013-05-19 03:02:00,46.7,43.6,30.21,East,95,0.0,0.0,89,0.00,,---,0.00,VWS V14.01,2013-05-19 07:02:00,
2013-05-19 03:03:00,46.7,43.6,30.21,East,95,0.0,0.0,89,0.00,,---,0.00,VWS V14.01,2013-05-19 07:03:00,
2013-05-19 03:04:00,46.7,43.6,30.21,East,95,0.0,0.0,89,0.00,,---,0.00,VWS V14.01,2013-05-19 07:04:00,
2013-05-19 03:05:00,46.5,43.4,30.21,East,95,0.0,0.0,89,0.00,,---,0.00,VWS V14.01,2013-05-19 07:05:00,
2013-05-19 03:06:00,46.5,43.4,30.21,East,95,0.0,0.0,89,0.00,,---,0.00,VWS V14.01,2013-05-19 07:06:00,
2013-05-19 03:07:00,46.7,43.6,30.21,East,95,0.0,0.0,89,0.00,,---,0.00,VWS V14.01,2013-05-19 07:07:00,
2013-05-19 03:08:00,46.7,43.6,30.21,East,95,0.0,0.0,89,0.00,,---,0.00,VWS V14.01,2013-05-19 07:08:00,
2013-05-19 03:09:00,46.7,43.6,30.21,East,95,0.0,0.0,89,0.00,,---,0.00,VWS V14.01,2013-05-19 07:09:00,
2013-05-19 03:10:00,46.7,43.6,30.21,East,95,0.0,1.0,89,0.00,,---,0.00,VWS V14.01,2013-05-19 07:10:00,
2013-05-19 03:11:00,46.7,43.6,30.21,East,95,1.0,2.0,89,0.00,,---,0.00,VWS V14.01,2013-05-19 07:11:00,
2013-05-19 03:12:00,46.7,43.6,30.21,East,95,2.0,2.0,89,0.00,,---,0.00,VWS V14.01,2013-05-19 07:12:00,
2013-05-19 03:13:00,46.7,43.9,30.21,East,95,2.0,2.0,90,0.00,,---,0.00,VWS V14.01,2013-05-19 07:13:00,
2013-05-19 03:14:00,46.7,43.9,30.21,East,95,2.0,3.0,90,0.00,,---,0.00,VWS V14.01,2013-05-19 07:14:00,
2013-05-19 03:15:00,46.7,43.9,30.21,East,95,2.0,3.0,90,0.00,,---,0.00,VWS V14.01,2013-05-19 07:15:00,
2013-05-19 03:16:00,46.7,43.9,30.21,East,95,3.0,3.0,90,0.00,,---,0.00,VWS V14.01,2013-05-19 07:16:00,
2013-05-19 03:17:00,46.7,43.9,30.21,East,95,1.0,3.0,90,0.00,,---,0.00,VWS V14.01,2013-05-19 07:17:00,
2013-05-19 03:18:00,46.7,43.9,30.21,East,95,0.0,3.0,90,0.00,,---,0.00,VWS V14.01,2013-05-19 07:18:00,
2013-05-19 03:19:00,46.7,43.9,30.21,East,95,0.0,3.0,90,0.00,,---,0.00,VWS V14.01,2013-05-19 07:19:00,
2013-05-19 03:20:00,46.7,43.9,30.21,East,95,0.0,3.0,90,0.00,,---,0.00,VWS V14.01,2013-05-19 07:20:00,
2013-05-19 03:21:00,46.7,43.9,30.21,East,95,0.0,3.0,90,0.00,,---,0.00,VWS V14.01,2013-05-19 07:21:00,
2013-05-19 03:22:00,46.7,43.9,30.21,East,95,0.0,3.0,90,0.00,,---,0.00,VWS V14.01,2013-05-19 07:22:00,
2013-05-19 03:23:00,46.7,43.9,30.21,East,95,0.0,3.0,90,0.00,,---,0.00,VWS V14.01,2013-05-19 07:23:00,
2013-05-19 03:24:00,46.7,43.9,30.21,East,95,0.0,3.0,90,0.00,,---,0.00,VWS V14.01,2013-05-19 07:24:00,
2013-05-19 03:25:00,46.7,43.9,30.21,East,95,0.0,3.0,90,0.00,,---,0.00,VWS V14.01,2013-05-19 07:25:00,
2013-05-19 03:26:00,46.7,43.9,30.21,East,95,0.0,3.0,90,0.00,,---,0.00,VWS V14.01,2013-05-19 07:26:00,
2013-05-19 03:27:00,46.5,43.7,30.21,East,95,0.0,3.0,90,0.00,,---,0.00,VWS V14.01,2013-05-19 07:27:00,
2013-05-19 03:28:00,46.5,43.7,30.21,East,95,0.0,3.0,90,0.00,,---,0.00,VWS V14.01,2013-05-19 07:28:00,
2013-05-19 03:29:00,46.5,43.7,30.21,East,95,0.0,3.0,90,0.00,,---,0.00,VWS V14.01,2013-05-19 07:29:00,
2013-05-19 03:30:00,46.5,43.7,30.21,East,95,0.0,3.0,90,0.00,,---,0.00,VWS V14.01,2013-05-19 07:30:00,
2013-05-19 03:31:00,46.5,43.7,30.21,East,95,0.0,0.0,90,0.00,,---,0.00,VWS V14.01,2013-05-19 07:31:00,
2013-05-19 03:32:00,46.5,43.7,30.21,East,95,0.0,0.0,90,0.00,,---,0.00,VWS V14.01,2013-05-19 07:32:00,
2013-05-19 03:33:00,46.5,43.7,30.21,East,95,0.0,0.0,90,0.00,,---,0.00,VWS V14.01,2013-05-19 07:33:00,
2013-05-19 03:34:00,46.5,43.7,30.21,East,95,0.0,0.0,90,0.00,,---,0.00,VWS V14.01,2013-05-19 07:34:00,
2013-05-19 03:35:00,46.5,43.7,30.21,East,95,0.0,0.0,90,0.00,,---,0.00,VWS V14.01,2013-05-19 07:35:00,
2013-05-19 03:36:00,46.5,43.7,30.21,East,95,0.0,0.0,90,0.00,,---,0.00,VWS V14.01,2013-05-19 07:36:00,
2013-05-19 03:37:00,46.5,43.7,30.21,East,95,0.0,0.0,90,0.00,,---,0.00,VWS V14.01,2013-05-19 07:37:00,
2013-05-19 03:38:00,46.5,43.7,30.21,East,95,0.0,0.0,90,0.00,,---,0.00,VWS V14.01,2013-05-19 07:38:00,
2013-05-19 03:39:00,46.5,43.7,30.21,East,95,0.0,0.0,90,0.00,,---,0.00,VWS V14.01,2013-05-19 07:39:00,
2013-05-19 03:40:00,46.5,43.7,30.21,East,95,0.0,0.0,90,0.00,,---,0.00,VWS V14.01,2013-05-19 07:40:00,
2013-05-19 03:41:00,46.5,43.7,30.21,East,95,0.0,0.0,90,0.00,,---,0.00,VWS V14.01,2013-05-19 07:41:00,
2013-05-19 03:42:00,46.5,43.7,30.21,East,95,0.0,0.0,90,0.00,,---,0.00,VWS V14.01,2013-05-19 07:42:00,
2013-05-19 03:43:00,46.5,43.7,30.21,East,95,0.0,0.0,90,0.00,,---,0.00,VWS V14.01,2013-05-19 07:43:00,
2013-05-19 03:44:00,46.5,43.7,30.21,East,95,0.0,0.0,90,0.00,,---,0.00,VWS V14.01,2013-05-19 07:44:00,
2013-05-19 03:45:00,46.5,43.7,30.21,East,95,0.0,0.0,90,0.00,,---,0.00,VWS V14.01,2013-05-19 07:45:00,
2013-05-19 03:46:00,46.5,43.7,30.21,East,95,0.0,0.0,90,0.00,,---,0.00,VWS V14.01,2013-05-19 07:46:00,
2013-05-19 03:47:00,46.5,43.7,30.21,East,95,0.0,0.0,90,0.00,,---,0.00,VWS V14.01,2013-05-19 07:47:00,
2013-05-19 03:48:00,46.5,43.7,30.21,East,95,0.0,0.0,90,0.00,,---,0.00,VWS V14.01,2013-05-19 07:48:00,
2013-05-19 03:49:00,46.5,43.7,30.21,East,95,0.0,0.0,90,0.00,,---,0.00,VWS V14.01,2013-05-19 07:49:00,
2013-05-19 03:50:00,46.5,43.7,30.21,East,95,0.0,0.0,90,0.00,,---,0.00,VWS V14.01,2013-05-19 07:50:00,
2013-05-19 03:51:00,46.5,43.7,30.21,East,95,0.0,0.0,90,0.00,,---,0.00,VWS V14.01,2013-05-19 07:51:00,
2013-05-19 03:52:00,46.5,43.7,30.21,East,95,0.0,0.0,90,0.00,,---,0.00,VWS V14.01,2013-05-19 07:52:00,
2013-05-19 03:53:00,46.5,43.7,30.21,East,95,0.0,0.0,90,0.00,,---,0.00,VWS V14.01,2013-05-19 07:53:00,
2013-05-19 03:54:00,46.5,43.7,30.21,East,95,0.0,0.0,90,0.00,,---,0.00,VWS V14.01,2013-05-19 07:54:00,
2013-05-19 03:55:00,46.5,43.7,30.21,East,95,0.0,0.0,90,0.00,,---,0.00,VWS V14.01,2013-05-19 07:55:00,
2013-05-19 03:56:00,46.5,43.7,30.21,East,95,0.0,0.0,90,0.00,,---,0.00,VWS V14.01,2013-05-19 07:56:00,
2013-05-19 03:57:00,46.5,43.7,30.21,East,95,0.0,0.0,90,0.00,,---,0.00,VWS V14.01,2013-05-19 07:57:00,
2013-05-19 03:58:00,46.5,43.7,30.21,East,95,0.0,0.0,90,0.00,,---,0.00,VWS V14.01,2013-05-19 07:58:00,
2013-05-19 03:59:00,46.5,43.7,30.21,East,95,0.0,0.0,90,0.00,,---,0.00,VWS V14.01,2013-05-19 07:59:00,
2013-05-19 04:00:00,46.5,43.7,30.21,East,95,0.0,0.0,90,0.00,,---,0.00,VWS V14.01,2013-05-19 08:00:00,
2013-05-19 04:01:00,46.5,43.7,30.21,East,95,0.0,0.0,90,0.00,,---,0.00,VWS V14.01,2013-05-19 08:01:00,
2013-05-19 04:02:00,46.5,43.7,30.21,East,95,0.0,0.0,90,0.00,,---,0.00,VWS V14.01,2013-05-19 08:02:00,
2013-05-19 04:03:00,46.5,43.7,30.21,East,95,0.0,0.0,90,0.00,,---,0.00,VWS V14.01,2013-05-19 08:03:00,
2013-05-19 04:04:00,46.5,43.7,30.21,East,95,0.0,0.0,90,0.00,,---,0.00,VWS V14.01,2013-05-19 08:04:00,
2013-05-19 04:05:00,46.5,43.7,30.21,East,95,0.0,2.0,90,0.00,,---,0.00,VWS V14.01,2013-05-19 08:05:00,
2013-05-19 04:06:00,46.5,43.7,30.21,East,95,0.0,2.0,90,0.00,,---,0.00,VWS V14.01,2013-05-19 08:06:00,
2013-05-19 04:07:00,46.5,43.7,30.21,East,95,0.0,2.0,90,0.00,,---,0.00,VWS V14.01,2013-05-19 08:07:00,
2013-05-19 04:08:00,46.5,43.7,30.21,East,95,0.0,2.0,90,0.00,,---,0.00,VWS V14.01,2013-05-19 08:08:00,
2013-05-19 04:09:00,46.7,43.9,30.21,East,95,0.0,2.0,90,0.00,,---,0.00,VWS V14.01,2013-05-19 08:09:00,
2013-05-19 04:10:00,46.7,43.9,30.21,East,95,1.0,2.0,90,0.00,,---,0.00,VWS V14.01,2013-05-19 08:10:00,
2013-05-19 04:11:00,46.7,43.9,30.21,East,95,0.0,2.0,90,0.00,,---,0.00,VWS V14.01,2013-05-19 08:11:00,
2013-05-19 04:12:00,46.7,43.9,30.21,East,95,2.0,2.0,90,0.00,,---,0.00,VWS V14.01,2013-05-19 08:12:00,
2013-05-19 04:13:00,46.7,43.9,30.21,East,95,1.0,2.0,90,0.00,,---,0.00,VWS V14.01,2013-05-19 08:13:00,
2013-05-19 04:14:00,46.5,43.7,30.21,WNW,301,3.0,3.0,90,0.00,,---,0.00,VWS V14.01,2013-05-19 08:14:00,
2013-05-19 04:15:00,46.5,43.7,30.22,WNW,301,0.0,3.0,90,0.00,,---,0.00,VWS V14.01,2013-05-19 08:15:00,
2013-05-19 04:16:00,46.5,43.7,30.22,WNW,301,0.0,3.0,90,0.00,,---,0.00,VWS V14.01,2013-05-19 08:16:00,
2013-05-19 04:17:00,46.5,43.7,30.22,WNW,301,0.0,3.0,90,0.00,,---,0.00,VWS V14.01,2013-05-19 08:17:00,
2013-05-19 04:18:00,46.5,43.7,30.22,WNW,301,0.0,3.0,90,0.00,,---,0.00,VWS V14.01,2013-05-19 08:18:00,
2013-05-19 04:19:00,46.5,43.7,30.22,WNW,301,0.0,3.0,90,0.00,,---,0.00,VWS V14.01,2013-05-19 08:19:00,
2013-05-19 04:20:00,46.5,43.7,30.22,WNW,301,0.0,3.0,90,0.00,,---,0.00,VWS V14.01,2013-05-19 08:20:00,
2013-05-19 04:21:00,46.4,43.6,30.22,WNW,301,0.0,3.0,90,0.00,,---,0.00,VWS V14.01,2013-05-19 08:21:00,
2013-05-19 04:22:00,46.4,43.6,30.22,WNW,301,1.0,3.0,90,0.00,,---,0.00,VWS V14.01,2013-05-19 08:22:00,
2013-05-19 04:23:00,46.4,43.6,30.22,WNW,300,1.0,3.0,90,0.00,,---,0.00,VWS V14.01,2013-05-19 08:23:00,
2013-05-19 04:24:00,46.4,43.6,30.22,WNW,301,2.0,3.0,90,0.00,,---,0.00,VWS V14.01,2013-05-19 08:24:00,
2013-05-19 04:25:00,46.4,43.9,30.22,WNW,301,0.0,3.0,91,0.00,,---,0.00,VWS V14.01,2013-05-19 08:25:00,
2013-05-19 04:26:00,46.4,43.6,30.22,WNW,301,0.0,3.0,90,0.00,,---,0.00,VWS V14.01,2013-05-19 08:26:00,
2013-05-19 04:27:00,46.4,43.6,30.22,WNW,301,0.0,3.0,90,0.00,,---,0.00,VWS V14.01,2013-05-19 08:27:00,
2013-05-19 04:28:00,46.4,43.6,30.22,WNW,300,0.0,3.0,90,0.00,,---,0.00,VWS V14.01,2013-05-19 08:28:00,
2013-05-19 04:29:00,46.4,43.6,30.22,WNW,301,0.0,3.0,90,0.00,,---,0.00,VWS V14.01,2013-05-19 08:29:00,
2013-05-19 04:30:00,46.4,43.6,30.22,WNW,301,0.0,3.0,90,0.00,,---,0.00,VWS V14.01,2013-05-19 08:30:00,
2013-05-19 04:31:00,46.4,43.6,30.22,WNW,301,0.0,0.0,90,0.00,,---,0.00,VWS V14.01,2013-05-19 08:31:00,
2013-05-19 04:32:00,46.4,43.6,30.22,WNW,301,0.0,0.0,90,0.00,,---,0.00,VWS V14.01,2013-05-19 08:32:00,
2013-05-19 04:33:00,46.4,43.6,30.22,WNW,301,0.0,0.0,90,0.00,,---,0.00,VWS V14.01,2013-05-19 08:33:00,
2013-05-19 04:34:00,46.2,43.4,30.22,WNW,301,0.0,0.0,90,0.00,,---,0.00,VWS V14.01,2013-05-19 08:34:00,
2013-05-19 04:35:00,46.2,43.4,30.22,WNW,301,0.0,0.0,90,0.00,,---,0.00,VWS V14.01,2013-05-19 08:35:00,
2013-05-19 04:36:00,46.2,43.4,30.22,WNW,301,0.0,0.0,90,0.00,,---,0.00,VWS V14.01,2013-05-19 08:36:00,
2013-05-19 04:37:00,46.2,43.4,30.22,WNW,301,0.0,0.0,90,0.00,,---,0.00,VWS V14.01,2013-05-19 08:37:00,
2013-05-19 04:38:00,46.2,43.4,30.22,WNW,300,0.0,0.0,90,0.00,,---,0.00,VWS V14.01,2013-05-19 08:38:00,
2013-05-19 04:39:00,46.2,43.4,30.22,WNW,301,0.0,0.0,90,0.00,,---,0.00,VWS V14.01,2013-05-19 08:39:00,
2013-05-19 04:40:00,46.2,43.4,30.22,WNW,301,0.0,0.0,90,0.00,,---,0.00,VWS V14.01,2013-05-19 08:40:00,
2013-05-19 04:41:00,46.2,43.4,30.22,WNW,301,0.0,0.0,90,0.00,,---,0.00,VWS V14.01,2013-05-19 08:41:00,
2013-05-19 04:42:00,46.2,43.4,30.22,WNW,301,0.0,0.0,90,0.00,,---,0.00,VWS V14.01,2013-05-19 08:42:00,
2013-05-19 04:43:00,46.2,43.4,30.22,WNW,301,0.0,0.0,90,0.00,,---,0.00,VWS V14.01,2013-05-19 08:43:00,
2013-05-19 04:44:00,46.2,43.4,30.22,WNW,300,0.0,0.0,90,0.00,,---,0.00,VWS V14.01,2013-05-19 08:44:00,
2013-05-19 04:45:00,46.2,43.4,30.22,WNW,301,0.0,0.0,90,0.00,,---,0.00,VWS V14.01,2013-05-19 08:45:00,
2013-05-19 04:46:00,46.2,43.4,30.22,WNW,301,0.0,0.0,90,0.00,,---,0.00,VWS V14.01,2013-05-19 08:46:00,
2013-05-19 04:47:00,46.2,43.4,30.22,WNW,301,0.0,0.0,90,0.00,,---,0.00,VWS V14.01,2013-05-19 08:47:00,
2013-05-19 04:48:00,46.2,43.4,30.22,WNW,301,0.0,0.0,90,0.00,,---,0.00,VWS V14.01,2013-05-19 08:48:00,
2013-05-19 04:49:00,46.2,43.4,30.22,WNW,301,0.0,0.0,90,0.00,,---,0.00,VWS V14.01,2013-05-19 08:49:00,
2013-05-19 04:50:00,46.2,43.4,30.22,WNW,301,0.0,0.0,90,0.00,,---,0.00,VWS V14.01,2013-05-19 08:50:00,
2013-05-19 04:51:00,46.2,43.4,30.22,WNW,301,0.0,0.0,90,0.00,,---,0.00,VWS V14.01,2013-05-19 08:51:00,
2013-05-19 04:52:00,46.2,43.4,30.22,WNW,301,0.0,0.0,90,0.00,,---,0.00,VWS V14.01,2013-05-19 08:52:00,
2013-05-19 04:53:00,46.2,43.4,30.22,WNW,300,0.0,0.0,90,0.00,,---,0.00,VWS V14.01,2013-05-19 08:53:00,
2013-05-19 04:54:00,46.2,43.4,30.22,WNW,301,0.0,0.0,90,0.00,,---,0.00,VWS V14.01,2013-05-19 08:54:00,
2013-05-19 04:55:00,46.2,43.4,30.22,WNW,301,0.0,0.0,90,0.00,,---,0.00,VWS V14.01,2013-05-19 08:55:00,
2013-05-19 04:56:00,46.2,43.4,30.22,WNW,301,0.0,0.0,90,0.00,,---,0.00,VWS V14.01,2013-05-19 08:56:00,
2013-05-19 04:57:00,46.2,43.4,30.22,WNW,301,0.0,0.0,90,0.00,,---,0.00,VWS V14.01,2013-05-19 08:57:00,
2013-05-19 04:58:00,46.2,43.4,30.22,WNW,301,0.0,0.0,90,0.00,,---,0.00,VWS V14.01,2013-05-19 08:58:00,
2013-05-19 04:59:00,46.2,43.4,30.22,WNW,301,0.0,0.0,90,0.00,,---,0.00,VWS V14.01,2013-05-19 08:59:00,
2013-05-19 05:00:00,46.2,43.4,30.22,WNW,301,0.0,0.0,90,0.00,,---,0.00,VWS V14.01,2013-05-19 09:00:00,
2013-05-19 05:01:00,46.4,43.6,30.22,WNW,301,0.0,0.0,90,0.00,,---,0.00,VWS V14.01,2013-05-19 09:01:00,
2013-05-19 05:02:00,46.4,43.6,30.22,WNW,301,0.0,0.0,90,0.00,,---,0.00,VWS V14.01,2013-05-19 09:02:00,
2013-05-19 05:03:00,46.4,43.6,30.22,WNW,301,0.0,0.0,90,0.00,,---,0.00,VWS V14.01,2013-05-19 09:03:00,
2013-05-19 05:04:00,46.4,43.6,30.22,WNW,301,0.0,0.0,90,0.00,,---,0.00,VWS V14.01,2013-05-19 09:04:00,
2013-05-19 05:05:00,46.4,43.6,30.22,WNW,301,0.0,0.0,90,0.00,,---,0.00,VWS V14.01,2013-05-19 09:05:00,
2013-05-19 05:06:00,46.4,43.6,30.22,WNW,301,0.0,0.0,90,0.00,,---,0.00,VWS V14.01,2013-05-19 09:06:00,
2013-05-19 05:07:00,46.4,43.6,30.22,WNW,301,0.0,0.0,90,0.00,,---,0.00,VWS V14.01,2013-05-19 09:07:00,
2013-05-19 05:08:00,46.2,43.4,30.22,WNW,301,0.0,1.0,90,0.00,,---,0.00,VWS V14.01,2013-05-19 09:08:00,
2013-05-19 05:09:00,46.4,43.6,30.22,WNW,301,0.0,1.0,90,0.00,,---,0.00,VWS V14.01,2013-05-19 09:09:00,
2013-05-19 05:10:00,46.2,43.4,30.22,WNW,301,0.0,1.0,90,0.00,,---,0.00,VWS V14.01,2013-05-19 09:10:00,
2013-05-19 05:11:00,46.2,43.4,30.22,WNW,300,0.0,1.0,90,0.00,,---,0.00,VWS V14.01,2013-05-19 09:11:00,
2013-05-19 05:12:00,46.2,43.4,30.22,WNW,300,0.0,1.0,90,0.00,,---,0.00,VWS V14.01,2013-05-19 09:12:00,
2013-05-19 05:13:00,46.2,43.4,30.22,WNW,300,0.0,1.0,90,0.00,,---,0.00,VWS V14.01,2013-05-19 09:13:00,
2013-05-19 05:14:00,46.2,43.4,30.23,WNW,301,0.0,1.0,90,0.00,,---,0.00,VWS V14.01,2013-05-19 09:14:00,
2013-05-19 05:15:00,46.2,43.4,30.23,WNW,300,0.0,1.0,90,0.00,,---,0.00,VWS V14.01,2013-05-19 09:15:00,
2013-05-19 05:16:00,46.2,43.4,30.23,WNW,301,0.0,1.0,90,0.00,,---,0.00,VWS V14.01,2013-05-19 09:16:00,
2013-05-19 05:17:00,46.2,43.4,30.23,WNW,300,0.0,1.0,90,0.00,,---,0.00,VWS V14.01,2013-05-19 09:17:00,
2013-05-19 05:18:00,46.2,43.4,30.23,WNW,301,0.0,1.0,90,0.00,,---,0.00,VWS V14.01,2013-05-19 09:18:00,
2013-05-19 05:19:00,46.2,43.4,30.23,WNW,300,0.0,1.0,90,0.00,,---,0.00,VWS V14.01,2013-05-19 09:19:00,
2013-05-19 05:20:00,46.1,43.3,30.23,WNW,301,0.0,1.0,90,0.00,,---,0.00,VWS V14.01,2013-05-19 09:20:00,
2013-05-19 05:21:00,46.1,43.3,30.23,WNW,301,0.0,1.0,90,0.00,,---,0.00,VWS V14.01,2013-05-19 09:21:00,
2013-05-19 05:22:00,46.1,43.3,30.23,WNW,301,0.0,1.0,90,0.00,,---,0.00,VWS V14.01,2013-05-19 09:22:00,
2013-05-19 05:23:00,46.1,43.3,30.23,WNW,301,0.0,1.0,90,0.00,,---,0.00,VWS V14.01,2013-05-19 09:23:00,
2013-05-19 05:24:00,46.1,43.3,30.23,WNW,301,1.0,1.0,90,0.00,,---,0.00,VWS V14.01,2013-05-19 09:24:00,
2013-05-19 05:25:00,46.1,43.3,30.23,WNW,301,0.0,1.0,90,0.00,,---,0.00,VWS V14.01,2013-05-19 09:25:00,
2013-05-19 05:26:00,46.1,43.3,30.23,WNW,301,0.0,1.0,90,0.00,,---,0.00,VWS V14.01,2013-05-19 09:26:00,
2013-05-19 05:27:00,46.1,43.6,30.23,WNW,301,0.0,1.0,91,0.00,,---,0.00,VWS V14.01,2013-05-19 09:27:00,
2013-05-19 05:28:00,46.1,43.6,30.23,WNW,300,0.0,1.0,91,0.00,,---,0.00,VWS V14.01,2013-05-19 09:28:00,
2013-05-19 05:29:00,46.1,43.6,30.23,WNW,300,0.0,1.0,91,0.00,,---,0.00,VWS V14.01,2013-05-19 09:29:00,
2013-05-19 05:30:00,46.1,43.3,30.23,WNW,301,0.0,1.0,90,0.00,,---,0.00,VWS V14.01,2013-05-19 09:30:00,
2013-05-19 05:31:00,46.1,43.3,30.23,WNW,301,0.0,0.0,90,0.00,,---,0.00,VWS V14.01,2013-05-19 09:31:00,
2013-05-19 05:32:00,46.1,43.3,30.23,WNW,301,0.0,0.0,90,0.00,,---,0.00,VWS V14.01,2013-05-19 09:32:00,
2013-05-19 05:33:00,46.1,43.3,30.23,WNW,301,0.0,1.0,90,0.00,,---,0.00,VWS V14.01,2013-05-19 09:33:00,
2013-05-19 05:34:00,46.1,43.3,30.23,WNW,301,0.0,1.0,90,0.00,,---,0.00,VWS V14.01,2013-05-19 09:34:00,
2013-05-19 05:35:00,46.1,43.3,30.23,WNW,301,1.0,2.0,90,0.00,,---,0.00,VWS V14.01,2013-05-19 09:35:00,
2013-05-19 05:36:00,46.2,43.4,30.23,WNW,301,1.0,2.0,90,0.00,,---,0.00,VWS V14.01,2013-05-19 09:36:00,
2013-05-19 05:37:00,46.2,43.7,30.23,WNW,301,0.0,2.0,91,0.00,,---,0.00,VWS V14.01,2013-05-19 09:37:00,
2013-05-19 05:38:00,46.2,43.4,30.23,WNW,301,2.0,2.0,90,0.00,,---,0.00,VWS V14.01,2013-05-19 09:38:00,
2013-05-19 05:39:00,46.2,43.4,30.23,WNW,301,0.0,2.0,90,0.00,,---,0.00,VWS V14.01,2013-05-19 09:39:00,
2013-05-19 05:40:00,46.2,43.4,30.23,WNW,301,0.0,2.0,90,0.00,,---,0.00,VWS V14.01,2013-05-19 09:40:00,
2013-05-19 05:41:00,46.2,43.4,30.23,WNW,301,0.0,2.0,90,0.00,,---,0.00,VWS V14.01,2013-05-19 09:41:00,
2013-05-19 05:42:00,46.2,43.4,30.23,WNW,301,1.0,2.0,90,0.00,,---,0.00,VWS V14.01,2013-05-19 09:42:00,
2013-05-19 05:43:00,46.2,43.4,30.23,WNW,301,0.0,2.0,90,0.00,,---,0.00,VWS V14.01,2013-05-19 09:43:00,
2013-05-19 05:44:00,46.4,43.6,30.23,WNW,301,0.0,2.0,90,0.00,,---,0.00,VWS V14.01,2013-05-19 09:44:00,
2013-05-19 05:45:00,46.4,43.6,30.23,WNW,300,0.0,2.0,90,0.00,,---,0.00,VWS V14.01,2013-05-19 09:45:00,
2013-05-19 05:46:00,46.4,43.6,30.23,WNW,301,0.0,2.0,90,0.00,,---,0.00,VWS V14.01,2013-05-19 09:46:00,
2013-05-19 05:47:00,46.5,43.7,30.23,WNW,301,0.0,2.0,90,0.00,,---,0.00,VWS V14.01,2013-05-19 09:47:00,
2013-05-19 05:48:00,46.5,43.7,30.23,WNW,300,0.0,2.0,90,0.00,,---,0.00,VWS V14.01,2013-05-19 09:48:00,
2013-05-19 05:49:00,46.5,43.7,30.23,WNW,300,0.0,2.0,90,0.00,,---,0.00,VWS V14.01,2013-05-19 09:49:00,
2013-05-19 05:50:00,46.5,43.7,30.23,WNW,301,0.0,2.0,90,0.00,,---,0.00,VWS V14.01,2013-05-19 09:50:00,
2013-05-19 05:51:00,46.5,43.7,30.23,WNW,300,0.0,2.0,90,0.00,,---,0.00,VWS V14.01,2013-05-19 09:51:00,
2013-05-19 05:52:00,46.5,43.7,30.23,WNW,300,0.0,2.0,90,0.00,,---,0.00,VWS V14.01,2013-05-19 09:52:00,
2013-05-19 05:53:00,46.7,43.9,30.23,WNW,301,0.0,2.0,90,0.00,,---,0.00,VWS V14.01,2013-05-19 09:53:00,
2013-05-19 05:54:00,46.7,43.9,30.23,WNW,301,0.0,2.0,90,0.00,,---,0.00,VWS V14.01,2013-05-19 09:54:00,
2013-05-19 05:55:00,46.7,43.9,30.23,WNW,300,0.0,2.0,90,0.00,,---,0.00,VWS V14.01,2013-05-19 09:55:00,
2013-05-19 05:56:00,46.8,44.0,30.23,WNW,301,0.0,2.0,90,0.00,,---,0.00,VWS V14.01,2013-05-19 09:56:00,
2013-05-19 05:57:00,46.8,44.0,30.23,WNW,300,2.0,2.0,90,0.00,,---,0.00,VWS V14.01,2013-05-19 09:57:00,
2013-05-19 05:58:00,46.8,43.7,30.23,WNW,301,0.0,3.0,89,0.00,,---,0.00,VWS V14.01,2013-05-19 09:58:00,
2013-05-19 05:59:00,46.8,43.7,30.24,WNW,301,1.0,3.0,89,0.00,,---,0.00,VWS V14.01,2013-05-19 09:59:00,
2013-05-19 06:00:00,46.8,43.7,30.24,WNW,301,0.0,3.0,89,0.00,,---,0.00,VWS V14.01,2013-05-19 10:00:00,
2013-05-19 06:01:00,46.8,43.7,30.24,WNW,301,0.0,0.0,89,0.00,,---,0.00,VWS V14.01,2013-05-19 10:01:00,
2013-05-19 06:02:00,46.8,43.7,30.24,WNW,301,0.0,1.0,89,0.00,,---,0.00,VWS V14.01,2013-05-19 10:02:00,
2013-05-19 06:03:00,47.0,43.9,30.24,WNW,300,2.0,3.0,89,0.00,,---,0.00,VWS V14.01,2013-05-19 10:03:00,
2013-05-19 06:04:00,47.0,43.9,30.24,WNW,300,2.0,3.0,89,0.00,,---,0.00,VWS V14.01,2013-05-19 10:04:00,
2013-05-19 06:05:00,47.0,43.9,30.24,WNW,300,1.0,3.0,89,0.00,,---,0.00,VWS V14.01,2013-05-19 10:05:00,
2013-05-19 06:06:00,47.0,43.9,30.24,WNW,300,2.0,3.0,89,0.00,,---,0.00,VWS V14.01,2013-05-19 10:06:00,
2013-05-19 06:07:00,47.0,43.9,30.24,WNW,300,0.0,3.0,89,0.00,,---,0.00,VWS V14.01,2013-05-19 10:07:00,
2013-05-19 06:08:00,47.1,44.0,30.24,WNW,301,0.0,3.0,89,0.00,,---,0.00,VWS V14.01,2013-05-19 10:08:00,
2013-05-19 06:09:00,47.1,44.0,30.24,WNW,300,0.0,3.0,89,0.00,,---,0.00,VWS V14.01,2013-05-19 10:09:00,
2013-05-19 06:10:00,47.1,44.0,30.24,WNW,301,1.0,3.0,89,0.00,,---,0.00,VWS V14.01,2013-05-19 10:10:00,
2013-05-19 06:11:00,47.1,44.0,30.24,WNW,301,0.0,3.0,89,0.00,,---,0.00,VWS V14.01,2013-05-19 10:11:00,
2013-05-19 06:12:00,47.1,44.0,30.24,WNW,301,0.0,3.0,89,0.00,,---,0.00,VWS V14.01,2013-05-19 10:12:00,
2013-05-19 06:13:00,47.3,44.2,30.24,WNW,301,0.0,3.0,89,0.00,,---,0.00,VWS V14.01,2013-05-19 10:13:00,
2013-05-19 06:14:00,47.3,44.2,30.24,WNW,301,0.0,3.0,89,0.00,,---,0.00,VWS V14.01,2013-05-19 10:14:00,
2013-05-19 06:15:00,47.3,44.2,30.24,WNW,301,0.0,3.0,89,0.00,,---,0.00,VWS V14.01,2013-05-19 10:15:00,
2013-05-19 06:16:00,47.3,44.2,30.24,WNW,300,0.0,3.0,89,0.00,,---,0.00,VWS V14.01,2013-05-19 10:16:00,
2013-05-19 06:17:00,47.3,44.2,30.24,WNW,301,0.0,3.0,89,0.00,,---,0.00,VWS V14.01,2013-05-19 10:17:00,
2013-05-19 06:18:00,47.3,44.2,30.24,WNW,301,0.0,3.0,89,0.00,,---,0.00,VWS V14.01,2013-05-19 10:18:00,
2013-05-19 06:19:00,47.3,44.2,30.24,WNW,301,0.0,3.0,89,0.00,,---,0.00,VWS V14.01,2013-05-19 10:19:00,
2013-05-19 06:20:00,47.3,44.2,30.24,WNW,301,0.0,3.0,89,0.00,,---,0.00,VWS V14.01,2013-05-19 10:20:00,
2013-05-19 06:21:00,47.4,44.3,30.24,WNW,301,0.0,3.0,89,0.00,,---,0.00,VWS V14.01,2013-05-19 10:21:00,
2013-05-19 06:22:00,47.4,44.3,30.24,WNW,301,0.0,3.0,89,0.00,,---,0.00,VWS V14.01,2013-05-19 10:22:00,
2013-05-19 06:23:00,47.4,44.3,30.24,WNW,300,0.0,3.0,89,0.00,,---,0.00,VWS V14.01,2013-05-19 10:23:00,
2013-05-19 06:24:00,47.4,44.3,30.24,WNW,301,0.0,3.0,89,0.00,,---,0.00,VWS V14.01,2013-05-19 10:24:00,
2013-05-19 06:25:00,47.4,44.3,30.24,WNW,301,0.0,3.0,89,0.00,,---,0.00,VWS V14.01,2013-05-19 10:25:00,
2013-05-19 06:26:00,47.6,44.5,30.24,WNW,301,0.0,3.0,89,0.00,,---,0.00,VWS V14.01,2013-05-19 10:26:00,
2013-05-19 06:27:00,47.6,44.5,30.24,WNW,301,0.0,3.0,89,0.00,,---,0.00,VWS V14.01,2013-05-19 10:27:00,
2013-05-19 06:28:00,47.7,44.6,30.24,WNW,301,1.0,3.0,89,0.00,,---,0.00,VWS V14.01,2013-05-19 10:28:00,
2013-05-19 06:29:00,47.7,44.6,30.24,WNW,301,3.0,4.0,89,0.00,,---,0.00,VWS V14.01,2013-05-19 10:29:00,
2013-05-19 06:30:00,47.7,44.6,30.24,WNW,301,2.0,4.0,89,0.00,,---,0.00,VWS V14.01,2013-05-19 10:30:00,
2013-05-19 06:31:00,47.7,44.3,30.24,WNW,301,2.0,3.0,88,0.00,,---,0.00,VWS V14.01,2013-05-19 10:31:00,
2013-05-19 06:32:00,47.7,44.6,30.24,WNW,300,0.0,3.0,89,0.00,,---,0.00,VWS V14.01,2013-05-19 10:32:00,
2013-05-19 06:33:00,47.7,44.3,30.24,WNW,301,0.0,3.0,88,0.00,,---,0.00,VWS V14.01,2013-05-19 10:33:00,
2013-05-19 06:34:00,47.7,44.3,30.24,WNW,301,0.0,3.0,88,0.00,,---,0.00,VWS V14.01,2013-05-19 10:34:00,
2013-05-19 06:35:00,47.7,44.3,30.24,WNW,301,0.0,3.0,88,0.00,,---,0.00,VWS V14.01,2013-05-19 10:35:00,
2013-05-19 06:36:00,47.7,44.3,30.24,WNW,301,0.0,3.0,88,0.00,,---,0.00,VWS V14.01,2013-05-19 10:36:00,
2013-05-19 06:37:00,47.9,44.8,30.24,WNW,301,0.0,3.0,89,0.00,,---,0.00,VWS V14.01,2013-05-19 10:37:00,
2013-05-19 06:38:00,48.0,44.9,30.24,WNW,301,0.0,3.0,89,0.00,,---,0.00,VWS V14.01,2013-05-19 10:38:00,
2013-05-19 06:39:00,48.0,44.9,30.24,WNW,301,0.0,3.0,89,0.00,,---,0.00,VWS V14.01,2013-05-19 10:39:00,
2013-05-19 06:40:00,48.0,44.6,30.24,NE,51,5.0,5.0,88,0.00,,---,0.00,VWS V14.01,2013-05-19 10:40:00,
2013-05-19 06:41:00,48.2,44.8,30.24,NNE,26,4.0,5.0,88,0.00,,---,0.00,VWS V14.01,2013-05-19 10:41:00,
2013-05-19 06:42:00,48.2,44.8,30.24,NE,40,3.0,5.0,88,0.00,,---,0.00,VWS V14.01,2013-05-19 10:42:00,
2013-05-19 06:43:00,48.2,44.8,30.24,ENE,66,4.0,6.0,88,0.00,,---,0.00,VWS V14.01,2013-05-19 10:43:00,
2013-05-19 06:44:00,48.3,44.9,30.24,ENE,57,3.0,6.0,88,0.00,,---,0.00,VWS V14.01,2013-05-19 10:44:00,
2013-05-19 06:45:00,48.3,44.6,30.24,NE,53,2.0,6.0,87,0.00,,---,0.00,VWS V14.01,2013-05-19 10:45:00,
2013-05-19 06:46:00,48.5,44.8,30.24,NE,53,0.0,6.0,87,0.00,,---,0.00,VWS V14.01,2013-05-19 10:46:00,
2013-05-19 06:47:00,48.5,44.8,30.24,East,82,4.0,6.0,87,0.00,,---,0.00,VWS V14.01,2013-05-19 10:47:00,
2013-05-19 06:48:00,48.5,44.5,30.24,East,97,4.0,6.0,86,0.00,,---,0.00,VWS V14.01,2013-05-19 10:48:00,
2013-05-19 06:49:00,48.5,44.5,30.24,East,89,5.0,6.0,86,0.00,,---,0.00,VWS V14.01,2013-05-19 10:49:00,
2013-05-19 06:50:00,48.5,44.5,30.24,East,88,4.0,9.0,86,0.00,,---,0.00,VWS V14.01,2013-05-19 10:50:00,
2013-05-19 06:51:00,48.5,44.5,30.24,East,97,6.0,9.0,86,0.00,,---,0.00,VWS V14.01,2013-05-19 10:51:00,
2013-05-19 06:52:00,48.3,44.3,30.24,East,91,4.0,9.0,86,0.00,,---,0.00,VWS V14.01,2013-05-19 10:52:00,
2013-05-19 06:53:00,48.3,44.3,30.24,East,79,5.0,9.0,86,0.00,,---,0.00,VWS V14.01,2013-05-19 10:53:00,
2013-05-19 06:54:00,48.3,44.3,30.24,ESE,113,3.0,9.0,86,0.00,,---,0.00,VWS V14.01,2013-05-19 10:54:00,
2013-05-19 06:55:00,48.3,44.3,30.24,ENE,77,4.0,9.0,86,0.00,,---,0.00,VWS V14.01,2013-05-19 10:55:00,
2013-05-19 06:56:00,48.3,44.3,30.24,East,96,3.0,9.0,86,0.00,,---,0.00,VWS V14.01,2013-05-19 10:56:00,
2013-05-19 06:57:00,48.3,44.3,30.24,ENE,66,5.0,9.0,86,0.00,,---,0.00,VWS V14.01,2013-05-19 10:57:00,
2013-05-19 06:58:00,48.3,44.3,30.24,East,84,6.0,9.0,86,0.00,,---,0.00,VWS V14.01,2013-05-19 10:58:00,
2013-05-19 06:59:00,48.3,44.3,30.25,ENE,72,5.0,9.0,86,0.00,,---,0.00,VWS V14.01,2013-05-19 10:59:00,
2013-05-19 07:00:00,48.3,44.3,30.25,East,89,3.0,9.0,86,0.00,,---,0.00,VWS V14.01,2013-05-19 11:00:00,
2013-05-19 07:01:00,48.3,44.3,30.25,East,86,5.0,5.0,86,0.00,,---,0.00,VWS V14.01,2013-05-19 11:01:00,
2013-05-19 07:02:00,48.3,44.3,30.25,NE,52,5.0,6.0,86,0.00,,---,0.00,VWS V14.01,2013-05-19 11:02:00,
2013-05-19 07:03:00,48.3,44.3,30.25,ENE,78,4.0,6.0,86,0.00,,---,0.00,VWS V14.01,2013-05-19 11:03:00,
2013-05-19 07:04:00,48.3,44.3,30.25,East,80,4.0,6.0,86,0.00,,---,0.00,VWS V14.01,2013-05-19 11:04:00,
2013-05-19 07:05:00,48.3,44.3,30.25,East,91,6.0,7.0,86,0.00,,---,0.00,VWS V14.01,2013-05-19 11:05:00,
2013-05-19 07:06:00,48.2,44.2,30.25,East,92,5.0,7.0,86,0.00,,---,0.00,VWS V14.01,2013-05-19 11:06:00,
2013-05-19 07:07:00,48.2,44.2,30.25,ENE,70,5.0,7.0,86,0.00,,---,0.00,VWS V14.01,2013-05-19 11:07:00,
2013-05-19 07:08:00,48.2,44.2,30.25,ENE,71,3.0,7.0,86,0.00,,---,0.00,VWS V14.01,2013-05-19 11:08:00,
2013-05-19 07:09:00,48.2,44.2,30.25,East,87,6.0,7.0,86,0.00,,---,0.00,VWS V14.01,2013-05-19 11:09:00,
2013-05-19 07:10:00,48.2,44.2,30.25,East,89,7.0,10.0,86,0.00,,---,0.00,VWS V14.01,2013-05-19 11:10:00,
2013-05-19 07:11:00,48.2,44.2,30.25,East,86,7.0,10.0,86,0.00,,---,0.00,VWS V14.01,2013-05-19 11:11:00,
2013-05-19 07:12:00,48.0,44.0,30.25,ENE,74,5.0,10.0,86,0.00,,---,0.00,VWS V14.01,2013-05-19 11:12:00,
2013-05-19 07:13:00,48.0,44.0,30.25,East,95,5.0,10.0,86,0.00,,---,0.00,VWS V14.01,2013-05-19 11:13:00,
2013-05-19 07:14:00,48.2,44.2,30.25,East,86,6.0,10.0,86,0.00,,---,0.00,VWS V14.01,2013-05-19 11:14:00,
2013-05-19 07:15:00,48.2,44.2,30.25,East,90,3.0,10.0,86,0.00,,---,0.00,VWS V14.01,2013-05-19 11:15:00,
2013-05-19 07:16:00,48.2,44.5,30.25,East,92,6.0,10.0,87,0.00,,---,0.00,VWS V14.01,2013-05-19 11:16:00,
2013-05-19 07:17:00,48.0,44.3,30.25,East,91,7.0,10.0,87,0.00,,---,0.00,VWS V14.01,2013-05-19 11:17:00,
2013-05-19 07:18:00,48.0,44.0,30.25,East,91,2.0,10.0,86,0.00,,---,0.00,VWS V14.01,2013-05-19 11:18:00,
2013-05-19 07:19:00,47.9,43.9,30.25,East,89,5.0,10.0,86,0.00,,---,0.00,VWS V14.01,2013-05-19 11:19:00,
2013-05-19 07:20:00,47.9,44.2,30.25,East,94,11.0,11.0,87,0.00,,---,0.00,VWS V14.01,2013-05-19 11:20:00,
2013-05-19 07:21:00,47.9,44.2,30.25,East,93,9.0,11.0,87,0.00,,---,0.00,VWS V14.01,2013-05-19 11:21:00,
2013-05-19 07:22:00,47.9,44.2,30.25,East,93,5.0,11.0,87,0.00,,---,0.00,VWS V14.01,2013-05-19 11:22:00,
2013-05-19 07:23:00,47.9,44.2,30.25,East,88,9.0,11.0,87,0.00,,---,0.00,VWS V14.01,2013-05-19 11:23:00,
2013-05-19 07:24:00,47.7,44.0,30.25,East,93,6.0,11.0,87,0.00,,---,0.00,VWS V14.01,2013-05-19 11:24:00,
2013-05-19 07:25:00,47.7,44.0,30.25,East,101,4.0,11.0,87,0.00,,---,0.00,VWS V14.01,2013-05-19 11:25:00,
2013-05-19 07:26:00,47.9,44.2,30.25,East,79,9.0,11.0,87,0.00,,---,0.00,VWS V14.01,2013-05-19 11:26:00,
2013-05-19 07:27:00,47.9,44.2,30.25,ENE,74,5.0,11.0,87,0.00,,---,0.00,VWS V14.01,2013-05-19 11:27:00,
2013-05-19 07:28:00,47.9,44.2,30.25,ENE,72,7.0,11.0,87,0.00,,---,0.00,VWS V14.01,2013-05-19 11:28:00,
2013-05-19 07:29:00,47.7,44.0,30.25,ENE,76,5.0,11.0,87,0.00,,---,0.00,VWS V14.01,2013-05-19 11:29:00,
2013-05-19 07:30:00,47.9,44.2,30.25,East,79,7.0,11.0,87,0.00,,---,0.00,VWS V14.01,2013-05-19 11:30:00,
2013-05-19 07:31:00,47.9,44.2,30.25,ENE,71,6.0,7.0,87,0.00,,---,0.00,VWS V14.01,2013-05-19 11:31:00,
2013-05-19 07:32:00,47.9,44.2,30.25,East,82,4.0,7.0,87,0.00,,---,0.00,VWS V14.01,2013-05-19 11:32:00,
2013-05-19 07:33:00,47.9,44.2,30.25,East,92,9.0,9.0,87,0.00,,---,0.00,VWS V14.01,2013-05-19 11:33:00,
2013-05-19 07:34:00,47.9,44.2,30.25,East,97,5.0,9.0,87,0.00,,---,0.00,VWS V14.01,2013-05-19 11:34:00,
2013-05-19 07:35:00,47.9,44.2,30.25,East,92,7.0,9.0,87,0.00,,---,0.00,VWS V14.01,2013-05-19 11:35:00,
2013-05-19 07:36:00,47.9,43.9,30.25,East,90,5.0,9.0,86,0.00,,---,0.00,VWS V14.01,2013-05-19 11:36:00,
2013-05-19 07:37:00,47.9,43.9,30.25,East,96,4.0,9.0,86,0.00,,---,0.00,VWS V14.01,2013-05-19 11:37:00,
2013-05-19 07:38:00,47.9,43.9,30.25,East,100,4.0,9.0,86,0.00,,---,0.00,VWS V14.01,2013-05-19 11:38:00,
2013-05-19 07:39:00,48.0,44.0,30.25,East,94,3.0,9.0,86,0.00,,---,0.00,VWS V14.01,2013-05-19 11:39:00,
2013-05-19 07:40:00,48.0,44.0,30.25,East,90,0.0,9.0,86,0.00,,---,0.00,VWS V14.01,2013-05-19 11:40:00,
2013-05-19 07:41:00,48.0,44.0,30.25,ENE,78,4.0,9.0,86,0.00,,---,0.00,VWS V14.01,2013-05-19 11:41:00,
2013-05-19 07:42:00,48.0,44.0,30.25,ENE,76,4.0,9.0,86,0.00,,---,0.00,VWS V14.01,2013-05-19 11:42:00,
2013-05-19 07:43:00,48.0,44.0,30.25,ENE,76,5.0,9.0,86,0.00,,---,0.00,VWS V14.01,2013-05-19 11:43:00,
2013-05-19 07:44:00,48.0,44.0,30.25,NE,51,5.0,9.0,86,0.00,,---,0.00,VWS V14.01,2013-05-19 11:44:00,
2013-05-19 07:45:00,48.0,44.0,30.25,ENE,64,3.0,9.0,86,0.00,,---,0.00,VWS V14.01,2013-05-19 11:45:00,
2013-05-19 07:46:00,48.2,44.5,30.25,ENE,75,7.0,9.0,87,0.00,,---,0.00,VWS V14.01,2013-05-19 11:46:00,
2013-05-19 07:47:00,48.2,44.5,30.25,ENE,76,3.0,9.0,87,0.00,,---,0.00,VWS V14.01,2013-05-19 11:47:00,
2013-05-19 07:48:00,48.2,44.2,30.25,ENE,69,5.0,9.0,86,0.00,,---,0.00,VWS V14.01,2013-05-19 11:48:00,
2013-05-19 07:49:00,48.2,44.5,30.25,East,90,6.0,10.0,87,0.00,,---,0.00,VWS V14.01,2013-05-19 11:49:00,
2013-05-19 07:50:00,48.3,44.6,30.25,East,85,4.0,10.0,87,0.00,,---,0.00,VWS V14.01,2013-05-19 11:50:00,
2013-05-19 07:51:00,48.3,44.3,30.25,East,86,5.0,10.0,86,0.00,,---,0.00,VWS V14.01,2013-05-19 11:51:00,
2013-05-19 07:52:00,48.3,44.3,30.25,ENE,67,5.0,10.0,86,0.00,,---,0.00,VWS V14.01,2013-05-19 11:52:00,
2013-05-19 07:53:00,48.5,44.5,30.25,East,93,5.0,10.0,86,0.00,,---,0.00,VWS V14.01,2013-05-19 11:53:00,
2013-05-19 07:54:00,48.5,44.5,30.25,East,93,4.0,10.0,86,0.00,,---,0.00,VWS V14.01,2013-05-19 11:54:00,
2013-05-19 07:55:00,48.5,44.5,30.25,ENE,78,6.0,10.0,86,0.00,,---,0.00,VWS V14.01,2013-05-19 11:55:00,
2013-05-19 07:56:00,48.5,44.5,30.25,ENE,76,4.0,10.0,86,0.00,,---,0.00,VWS V14.01,2013-05-19 11:56:00,
2013-05-19 07:57:00,48.6,44.9,30.25,ENE,67,5.0,10.0,87,0.00,,---,0.00,VWS V14.01,2013-05-19 11:57:00,
2013-05-19 07:58:00,48.6,44.9,30.25,East,93,5.0,10.0,87,0.00,,---,0.00,VWS V14.01,2013-05-19 11:58:00,
2013-05-19 07:59:00,48.6,44.6,30.25,East,93,3.0,10.0,86,0.00,,---,0.00,VWS V14.01,2013-05-19 11:59:00,
2013-05-19 08:00:00,48.6,44.6,30.25,ENE,77,5.0,10.0,86,0.00,,---,0.00,VWS V14.01,2013-05-19 12:00:00,
2013-05-19 08:01:00,48.6,44.6,30.25,East,88,4.0,6.0,86,0.00,,---,0.00,VWS V14.01,2013-05-19 12:01:00,
2013-05-19 08:02:00,48.6,44.6,30.25,East,88,3.0,6.0,86,0.00,,---,0.00,VWS V14.01,2013-05-19 12:02:00,
2013-05-19 08:03:00,48.8,44.8,30.25,ENE,73,5.0,6.0,86,0.00,,---,0.00,VWS V14.01,2013-05-19 12:03:00,
2013-05-19 08:04:00,48.8,44.8,30.25,ENE,63,4.0,6.0,86,0.00,,---,0.00,VWS V14.01,2013-05-19 12:04:00,
2013-05-19 08:05:00,48.8,44.8,30.25,ENE,64,5.0,6.0,86,0.00,,---,0.00,VWS V14.01,2013-05-19 12:05:00,
2013-05-19 08:06:00,48.8,44.8,30.25,ENE,65,5.0,6.0,86,0.00,,---,0.00,VWS V14.01,2013-05-19 12:06:00,
2013-05-19 08:07:00,48.8,44.8,30.25,ENE,76,6.0,6.0,86,0.00,,---,0.00,VWS V14.01,2013-05-19 12:07:00,
2013-05-19 08:08:00,48.8,44.8,30.25,NE,53,2.0,6.0,86,0.00,,---,0.00,VWS V14.01,2013-05-19 12:08:00,
2013-05-19 08:09:00,48.8,44.8,30.25,NE,53,2.0,6.0,86,0.00,,---,0.00,VWS V14.01,2013-05-19 12:09:00,
2013-05-19 08:10:00,48.9,44.9,30.25,ENE,67,5.0,6.0,86,0.00,,---,0.00,VWS V14.01,2013-05-19 12:10:00,
2013-05-19 08:11:00,48.9,44.6,30.25,ENE,66,3.0,6.0,85,0.00,,---,0.00,VWS V14.01,2013-05-19 12:11:00,
2013-05-19 08:12:00,48.9,44.3,30.25,ENE,66,2.0,6.0,84,0.00,,---,0.00,VWS V14.01,2013-05-19 12:12:00,
2013-05-19 08:13:00,48.9,44.3,30.25,ENE,66,0.0,6.0,84,0.00,,---,0.00,VWS V14.01,2013-05-19 12:13:00,
2013-05-19 08:14:00,49.1,44.5,30.25,ENE,66,0.0,6.0,84,0.00,,---,0.00,VWS V14.01,2013-05-19 12:14:00,
2013-05-19 08:15:00,49.1,44.5,30.25,ENE,66,2.0,6.0,84,0.00,,---,0.00,VWS V14.01,2013-05-19 12:15:00,
2013-05-19 08:16:00,49.1,44.5,30.25,ENE,66,1.0,6.0,84,0.00,,---,0.00,VWS V14.01,2013-05-19 12:16:00,
2013-05-19 08:17:00,49.2,44.6,30.25,ENE,63,0.0,6.0,84,0.00,,---,0.00,VWS V14.01,2013-05-19 12:17:00,
2013-05-19 08:18:00,49.2,44.6,30.25,ENE,63,0.0,6.0,84,0.00,,---,0.00,VWS V14.01,2013-05-19 12:18:00,
2013-05-19 08:19:00,49.4,44.8,30.25,NE,40,4.0,6.0,84,0.00,,---,0.00,VWS V14.01,2013-05-19 12:19:00,
2013-05-19 08:20:00,49.4,45.1,30.25,NE,40,2.0,6.0,85,0.00,,---,0.00,VWS V14.01,2013-05-19 12:20:00,
2013-05-19 08:21:00,49.5,45.2,30.25,NNE,32,4.0,6.0,85,0.00,,---,0.00,VWS V14.01,2013-05-19 12:21:00,
2013-05-19 08:22:00,49.6,45.6,30.25,NNE,32,4.0,6.0,86,0.00,,---,0.00,VWS V14.01,2013-05-19 12:22:00,
2013-05-19 08:23:00,49.6,45.3,30.25,NNE,32,4.0,6.0,85,0.00,,---,0.00,VWS V14.01,2013-05-19 12:23:00,
2013-05-19 08:24:00,49.6,45.3,30.25,NNE,30,3.0,6.0,85,0.00,,---,0.00,VWS V14.01,2013-05-19 12:24:00,
2013-05-19 08:25:00,49.8,45.5,30.25,NNE,30,2.0,6.0,85,0.00,,---,0.00,VWS V14.01,2013-05-19 12:25:00,
2013-05-19 08:26:00,49.9,45.3,30.25,NNE,29,0.0,6.0,84,0.00,,---,0.00,VWS V14.01,2013-05-19 12:26:00,
2013-05-19 08:27:00,50.1,45.5,30.25,ENE,73,3.0,6.0,84,0.00,,---,0.00,VWS V14.01,2013-05-19 12:27:00,
2013-05-19 08:28:00,50.2,45.6,30.25,ENE,77,6.0,6.0,84,0.00,,---,0.00,VWS V14.01,2013-05-19 12:28:00,
2013-05-19 08:29:00,50.2,45.2,30.25,East,94,6.0,8.0,83,0.00,,---,0.00,VWS V14.01,2013-05-19 12:29:00,
2013-05-19 08:30:00,50.2,45.2,30.25,ENE,78,6.0,10.0,83,0.00,,---,0.00,VWS V14.01,2013-05-19 12:30:00,
2013-05-19 08:31:00,50.2,45.2,30.25,East,86,7.0,10.0,83,0.00,,---,0.00,VWS V14.01,2013-05-19 12:31:00,
2013-05-19 08:32:00,50.1,45.2,30.25,East,86,8.0,10.0,83,0.00,,---,0.00,VWS V14.01,2013-05-19 12:32:00,
2013-05-19 08:33:00,49.9,45.0,30.25,East,86,7.0,10.0,83,0.00,,---,0.00,VWS V14.01,2013-05-19 12:33:00,
2013-05-19 08:34:00,49.9,45.0,30.25,East,87,7.0,10.0,83,0.00,,---,0.00,VWS V14.01,2013-05-19 12:34:00,
2013-05-19 08:35:00,49.9,45.0,30.25,East,90,7.0,10.0,83,0.00,,---,0.00,VWS V14.01,2013-05-19 12:35:00,
2013-05-19 08:36:00,49.8,44.8,30.25,East,86,3.0,10.0,83,0.00,,---,0.00,VWS V14.01,2013-05-19 12:36:00,
2013-05-19 08:37:00,49.9,45.0,30.25,East,86,3.0,10.0,83,0.00,,---,0.00,VWS V14.01,2013-05-19 12:37:00,
2013-05-19 08:38:00,49.9,45.3,30.25,East,88,6.0,10.0,84,0.00,,---,0.00,VWS V14.01,2013-05-19 12:38:00,
2013-05-19 08:39:00,50.1,45.5,30.25,East,85,7.0,10.0,84,0.00,,---,0.00,VWS V14.01,2013-05-19 12:39:00,
2013-05-19 08:40:00,50.1,45.5,30.25,East,80,6.0,10.0,84,0.00,,---,0.00,VWS V14.01,2013-05-19 12:40:00,
2013-05-19 08:41:00,50.1,45.5,30.25,ENE,74,6.0,10.0,84,0.00,,---,0.00,VWS V14.01,2013-05-19 12:41:00,
2013-05-19 08:42:00,50.1,45.2,30.25,ENE,70,5.0,10.0,83,0.00,,---,0.00,VWS V14.01,2013-05-19 12:42:00,
2013-05-19 08:43:00,50.2,45.2,30.25,East,88,7.0,10.0,83,0.00,,---,0.00,VWS V14.01,2013-05-19 12:43:00,
2013-05-19 08:44:00,50.2,45.2,30.26,East,86,4.0,10.0,83,0.00,,---,0.00,VWS V14.01,2013-05-19 12:44:00,
2013-05-19 08:45:00,50.2,45.2,30.26,East,86,3.0,10.0,83,0.00,,---,0.00,VWS V14.01,2013-05-19 12:45:00,
2013-05-19 08:46:00,50.2,45.2,30.26,East,82,6.0,10.0,83,0.00,,---,0.00,VWS V14.01,2013-05-19 12:46:00,
2013-05-19 08:47:00,50.2,45.6,30.26,ENE,63,4.0,10.0,84,0.00,,---,0.00,VWS V14.01,2013-05-19 12:47:00,
2013-05-19 08:48:00,50.1,45.5,30.26,NE,46,4.0,10.0,84,0.00,,---,0.00,VWS V14.01,2013-05-19 12:48:00,
2013-05-19 08:49:00,50.1,45.5,30.26,NE,47,4.0,10.0,84,0.00,,---,0.00,VWS V14.01,2013-05-19 12:49:00,
2013-05-19 08:50:00,50.2,45.9,30.26,NE,40,5.0,10.0,85,0.00,,---,0.00,VWS V14.01,2013-05-19 12:50:00,
2013-05-19 08:51:00,50.2,45.9,30.26,ENE,59,6.0,10.0,85,0.00,,---,0.00,VWS V14.01,2013-05-19 12:51:00,
2013-05-19 08:52:00,50.2,45.6,30.26,East,82,6.0,10.0,84,0.00,,---,0.00,VWS V14.01,2013-05-19 12:52:00,
2013-05-19 08:53:00,50.2,45.6,30.26,ENE,68,5.0,10.0,84,0.00,,---,0.00,VWS V14.01,2013-05-19 12:53:00,
2013-05-19 08:54:00,50.2,45.6,30.26,ENE,69,4.0,10.0,84,0.00,,---,0.00,VWS V14.01,2013-05-19 12:54:00,
2013-05-19 08:55:00,50.2,45.6,30.26,ENE,67,5.0,10.0,84,0.00,,---,0.00,VWS V14.01,2013-05-19 12:55:00,
2013-05-19 08:56:00,50.2,45.6,30.26,ENE,62,4.0,10.0,84,0.00,,---,0.00,VWS V14.01,2013-05-19 12:56:00,
2013-05-19 08:57:00,50.2,45.6,30.26,ENE,58,5.0,10.0,84,0.00,,---,0.00,VWS V14.01,2013-05-19 12:57:00,
2013-05-19 08:58:00,50.1,45.5,30.26,ENE,58,2.0,10.0,84,0.00,,---,0.00,VWS V14.01,2013-05-19 12:58:00,
2013-05-19 08:59:00,50.2,45.6,30.26,ENE,58,2.0,10.0,84,0.00,,---,0.00,VWS V14.01,2013-05-19 12:59:00,
2013-05-19 09:00:00,50.2,45.6,30.26,ENE,58,4.0,10.0,84,0.00,,---,0.00,VWS V14.01,2013-05-19 13:00:00,
2013-05-19 09:01:00,50.4,46.1,30.26,ENE,69,4.0,5.0,85,0.00,,---,0.00,VWS V14.01,2013-05-19 13:01:00,
2013-05-19 09:02:00,50.4,45.8,30.26,ENE,69,4.0,5.0,84,0.00,,---,0.00,VWS V14.01,2013-05-19 13:02:00,
2013-05-19 09:03:00,50.5,45.8,30.26,ENE,67,3.0,5.0,84,0.00,,---,0.00,VWS V14.01,2013-05-19 13:03:00,
2013-05-19 09:04:00,50.5,45.8,30.26,NE,43,4.0,5.0,84,0.00,,---,0.00,VWS V14.01,2013-05-19 13:04:00,
2013-05-19 09:05:00,50.5,45.8,30.26,NNE,30,5.0,6.0,84,0.00,,---,0.00,VWS V14.01,2013-05-19 13:05:00,
2013-05-19 09:06:00,50.7,46.0,30.26,NNE,30,5.0,6.0,84,0.00,,---,0.00,VWS V14.01,2013-05-19 13:06:00,
2013-05-19 09:07:00,50.7,46.0,30.26,NNE,30,4.0,6.0,84,0.00,,---,0.00,VWS V14.01,2013-05-19 13:07:00,
2013-05-19 09:08:00,50.7,46.0,30.26,NNE,30,4.0,6.0,84,0.00,,---,0.00,VWS V14.01,2013-05-19 13:08:00,
2013-05-19 09:09:00,50.7,46.0,30.26,NNE,29,5.0,6.0,84,0.00,,---,0.00,VWS V14.01,2013-05-19 13:09:00,
2013-05-19 09:10:00,50.8,46.2,30.26,NNE,24,4.0,6.0,84,0.00,,---,0.00,VWS V14.01,2013-05-19 13:10:00,
2013-05-19 09:11:00,50.8,46.2,30.26,NNE,22,4.0,6.0,84,0.00,,---,0.00,VWS V14.01,2013-05-19 13:11:00,
2013-05-19 09:12:00,51.0,46.3,30.26,NNE,30,5.0,6.0,84,0.00,,---,0.00,VWS V14.01,2013-05-19 13:12:00,
2013-05-19 09:13:00,51.1,46.4,30.26,ENE,65,5.0,6.0,84,0.00,,---,0.00,VWS V14.01,2013-05-19 13:13:00,
2013-05-19 09:14:00,51.1,46.4,30.26,NE,44,3.0,6.0,84,0.00,,---,0.00,VWS V14.01,2013-05-19 13:14:00,
2013-05-19 09:15:00,51.3,46.6,30.26,East,82,7.0,7.0,84,0.00,,---,0.00,VWS V14.01,2013-05-19 13:15:00,
2013-05-19 09:16:00,51.4,46.4,30.26,East,82,7.0,9.0,83,0.00,,---,0.00,VWS V14.01,2013-05-19 13:16:00,
2013-05-19 09:17:00,51.4,45.8,30.26,East,88,4.0,9.0,81,0.00,,---,0.00,VWS V14.01,2013-05-19 13:17:00,
2013-05-19 09:18:00,51.6,46.3,30.26,East,82,8.0,9.0,82,0.00,,---,0.00,VWS V14.01,2013-05-19 13:18:00,
2013-05-19 09:19:00,51.6,46.0,30.26,ENE,78,6.0,9.0,81,0.00,,---,0.00,VWS V14.01,2013-05-19 13:19:00,
2013-05-19 09:20:00,51.4,45.8,30.26,East,87,4.0,9.0,81,0.00,,---,0.00,VWS V14.01,2013-05-19 13:20:00,
2013-05-19 09:21:00,51.4,46.1,30.26,ENE,78,4.0,9.0,82,0.00,,---,0.00,VWS V14.01,2013-05-19 13:21:00,
2013-05-19 09:22:00,51.4,46.1,30.26,ENE,76,3.0,9.0,82,0.00,,---,0.00,VWS V14.01,2013-05-19 13:22:00,
2013-05-19 09:23:00,51.4,46.1,30.26,NE,51,2.0,9.0,82,0.00,,---,0.00,VWS V14.01,2013-05-19 13:23:00,
2013-05-19 09:24:00,51.4,46.1,30.26,NE,55,5.0,9.0,82,0.00,,---,0.00,VWS V14.01,2013-05-19 13:24:00,
2013-05-19 09:25:00,51.4,46.1,30.26,NE,55,4.0,9.0,82,0.00,,---,0.00,VWS V14.01,2013-05-19 13:25:00,
2013-05-19 09:26:00,51.4,46.1,30.26,NE,53,4.0,9.0,82,0.00,,---,0.00,VWS V14.01,2013-05-19 13:26:00,
2013-05-19 09:27:00,51.3,46.0,30.26,NE,50,6.0,9.0,82,0.00,,---,0.00,VWS V14.01,2013-05-19 13:27:00,
2013-05-19 09:28:00,51.3,46.0,30.26,ENE,63,5.0,9.0,82,0.00,,---,0.00,VWS V14.01,2013-05-19 13:28:00,
2013-05-19 09:29:00,51.3,46.0,30.26,ENE,64,4.0,9.0,82,0.00,,---,0.00,VWS V14.01,2013-05-19 13:29:00,
2013-05-19 09:30:00,51.3,46.0,30.26,NE,55,4.0,9.0,82,0.00,,---,0.00,VWS V14.01,2013-05-19 13:30:00,
2013-05-19 09:31:00,51.4,46.4,30.26,East,79,7.0,7.0,83,0.00,,---,0.00,VWS V14.01,2013-05-19 13:31:00,
2013-05-19 09:32:00,51.4,46.1,30.26,ENE,69,6.0,7.0,82,0.00,,---,0.00,VWS V14.01,2013-05-19 13:32:00,
2013-05-19 09:33:00,51.6,46.0,30.26,ENE,77,5.0,7.0,81,0.00,,---,0.00,VWS V14.01,2013-05-19 13:33:00,
2013-05-19 09:34:00,51.7,46.1,30.26,ENE,78,3.0,7.0,81,0.00,,---,0.00,VWS V14.01,2013-05-19 13:34:00,
2013-05-19 09:35:00,51.9,46.3,30.26,ENE,78,2.0,7.0,81,0.00,,---,0.00,VWS V14.01,2013-05-19 13:35:00,
2013-05-19 09:36:00,51.9,45.9,30.26,ENE,72,4.0,7.0,80,0.00,,---,0.00,VWS V14.01,2013-05-19 13:36:00,
2013-05-19 09:37:00,52.0,46.0,30.26,ESE,109,5.0,7.0,80,0.00,,---,0.00,VWS V14.01,2013-05-19 13:37:00,
2013-05-19 09:38:00,52.0,46.0,30.26,East,88,9.0,10.0,80,0.00,,---,0.00,VWS V14.01,2013-05-19 13:38:00,
2013-05-19 09:39:00,51.9,45.6,30.26,East,96,7.0,10.0,79,0.00,,---,0.00,VWS V14.01,2013-05-19 13:39:00,
2013-05-19 09:40:00,51.9,45.6,30.26,East,87,6.0,10.0,79,0.00,,---,0.00,VWS V14.01,2013-05-19 13:40:00,
2013-05-19 09:41:00,51.9,45.6,30.26,East,83,4.0,10.0,79,0.00,,---,0.00,VWS V14.01,2013-05-19 13:41:00,
2013-05-19 09:42:00,51.9,45.6,30.26,East,89,4.0,10.0,79,0.00,,---,0.00,VWS V14.01,2013-05-19 13:42:00,
2013-05-19 09:43:00,52.0,45.7,30.26,East,90,5.0,10.0,79,0.00,,---,0.00,VWS V14.01,2013-05-19 13:43:00,
2013-05-19 09:44:00,52.0,45.4,30.26,East,80,0.0,10.0,78,0.00,,---,0.00,VWS V14.01,2013-05-19 13:44:00,
2013-05-19 09:45:00,52.2,45.6,30.26,ENE,69,3.0,10.0,78,0.00,,---,0.00,VWS V14.01,2013-05-19 13:45:00,
2013-05-19 09:46:00,52.3,45.7,30.26,East,89,5.0,10.0,78,0.00,,---,0.00,VWS V14.01,2013-05-19 13:46:00,
2013-05-19 09:47:00,52.5,45.8,30.26,ENE,75,5.0,10.0,78,0.00,,---,0.00,VWS V14.01,2013-05-19 13:47:00,
2013-05-19 09:48:00,52.5,45.8,30.26,East,83,6.0,10.0,78,0.00,,---,0.00,VWS V14.01,2013-05-19 13:48:00,
2013-05-19 09:49:00,52.3,45.3,30.26,East,86,10.0,10.0,77,0.00,,---,0.00,VWS V14.01,2013-05-19 13:49:00,
2013-05-19 09:50:00,52.3,45.7,30.26,ENE,76,6.0,10.0,78,0.00,,---,0.00,VWS V14.01,2013-05-19 13:50:00,
2013-05-19 09:51:00,52.3,45.7,30.26,ENE,67,5.0,10.0,78,0.00,,---,0.00,VWS V14.01,2013-05-19 13:51:00,
2013-05-19 09:52:00,52.3,46.0,30.26,ENE,73,5.0,10.0,79,0.00,,---,0.00,VWS V14.01,2013-05-19 13:52:00,
2013-05-19 09:53:00,52.3,45.7,30.26,ENE,71,2.0,10.0,78,0.00,,---,0.00,VWS V14.01,2013-05-19 13:53:00,
2013-05-19 09:54:00,52.5,45.8,30.26,NE,51,4.0,10.0,78,0.00,,---,0.00,VWS V14.01,2013-05-19 13:54:00,
2013-05-19 09:55:00,52.5,45.5,30.26,NE,51,3.0,10.0,77,0.00,,---,0.00,VWS V14.01,2013-05-19 13:55:00,
2013-05-19 09:56:00,52.5,45.5,30.26,ENE,61,3.0,10.0,77,0.00,,---,0.00,VWS V14.01,2013-05-19 13:56:00,
2013-05-19 09:57:00,52.5,45.8,30.26,ENE,73,3.0,10.0,78,0.00,,---,0.00,VWS V14.01,2013-05-19 13:57:00,
2013-05-19 09:58:00,52.5,45.8,30.26,ENE,68,5.0,10.0,78,0.00,,---,0.00,VWS V14.01,2013-05-19 13:58:00,
2013-05-19 09:59:00,52.5,45.5,30.26,NE,35,5.0,10.0,77,0.00,,---,0.00,VWS V14.01,2013-05-19 13:59:00,
2013-05-19 10:00:00,52.5,45.5,30.26,NE,42,1.0,10.0,77,0.00,,---,0.00,VWS V14.01,2013-05-19 14:00:00,
2013-05-19 10:01:00,52.6,46.0,30.26,East,89,4.0,5.0,78,0.00,,---,0.00,VWS V14.01,2013-05-19 14:01:00,
2013-05-19 10:02:00,52.6,45.6,30.26,ENE,66,5.0,5.0,77,0.00,,---,0.00,VWS V14.01,2013-05-19 14:02:00,
2013-05-19 10:03:00,52.8,45.8,30.26,East,86,2.0,5.0,77,0.00,,---,0.00,VWS V14.01,2013-05-19 14:03:00,
2013-05-19 10:04:00,52.9,45.9,30.26,East,98,0.0,5.0,77,0.00,,---,0.00,VWS V14.01,2013-05-19 14:04:00,
2013-05-19 10:05:00,53.1,45.8,30.26,ENE,77,4.0,8.0,76,0.00,,---,0.00,VWS V14.01,2013-05-19 14:05:00,
2013-05-19 10:06:00,53.1,45.8,30.26,East,80,6.0,8.0,76,0.00,,---,0.00,VWS V14.01,2013-05-19 14:06:00,
2013-05-19 10:07:00,53.1,45.8,30.26,ENE,73,5.0,8.0,76,0.00,,---,0.00,VWS V14.01,2013-05-19 14:07:00,
2013-05-19 10:08:00,53.1,45.8,30.26,East,90,10.0,10.0,76,0.00,,---,0.00,VWS V14.01,2013-05-19 14:08:00,
2013-05-19 10:09:00,52.9,45.5,30.26,ENE,63,7.0,10.0,76,0.00,,---,0.00,VWS V14.01,2013-05-19 14:09:00,
2013-05-19 10:10:00,52.9,45.2,30.26,East,81,5.0,10.0,75,0.00,,---,0.00,VWS V14.01,2013-05-19 14:10:00,
2013-05-19 10:11:00,52.9,45.2,30.26,East,83,7.0,10.0,75,0.00,,---,0.00,VWS V14.01,2013-05-19 14:11:00,
2013-05-19 10:12:00,52.9,45.2,30.26,East,82,6.0,10.0,75,0.00,,---,0.00,VWS V14.01,2013-05-19 14:12:00,
2013-05-19 10:13:00,52.9,45.2,30.26,ENE,77,3.0,10.0,75,0.00,,---,0.00,VWS V14.01,2013-05-19 14:13:00,
2013-05-19 10:14:00,53.1,45.4,30.26,ENE,65,1.0,10.0,75,0.00,,---,0.00,VWS V14.01,2013-05-19 14:14:00,
2013-05-19 10:15:00,53.1,45.4,30.26,ENE,65,2.0,10.0,75,0.00,,---,0.00,VWS V14.01,2013-05-19 14:15:00,
2013-05-19 10:16:00,53.2,45.5,30.26,ENE,65,0.0,10.0,75,0.00,,---,0.00,VWS V14.01,2013-05-19 14:16:00,
2013-05-19 10:17:00,53.2,45.5,30.26,ENE,64,4.0,10.0,75,0.00,,---,0.00,VWS V14.01,2013-05-19 14:17:00,
2013-05-19 10:18:00,53.3,45.6,30.26,NE,42,3.0,10.0,75,0.00,,---,0.00,VWS V14.01,2013-05-19 14:18:00,
2013-05-19 10:19:00,53.5,45.8,30.26,NE,34,0.0,10.0,75,0.00,,---,0.00,VWS V14.01,2013-05-19 14:19:00,
2013-05-19 10:20:00,53.5,45.8,30.26,ENE,67,3.0,10.0,75,0.00,,---,0.00,VWS V14.01,2013-05-19 14:20:00,
2013-05-19 10:21:00,53.6,45.9,30.26,ENE,71,4.0,10.0,75,0.00,,---,0.00,VWS V14.01,2013-05-19 14:21:00,
2013-05-19 10:22:00,53.8,46.1,30.26,NE,49,5.0,10.0,75,0.00,,---,0.00,VWS V14.01,2013-05-19 14:22:00,
2013-05-19 10:23:00,53.8,46.1,30.26,East,89,3.0,10.0,75,0.00,,---,0.00,VWS V14.01,2013-05-19 14:23:00,
2013-05-19 10:24:00,53.9,46.2,30.26,ENE,73,5.0,10.0,75,0.00,,---,0.00,VWS V14.01,2013-05-19 14:24:00,
2013-05-19 10:25:00,53.8,46.1,30.26,East,85,5.0,10.0,75,0.00,,---,0.00,VWS V14.01,2013-05-19 14:25:00,
2013-05-19 10:26:00,53.8,46.1,30.26,NE,48,3.0,10.0,75,0.00,,---,0.00,VWS V14.01,2013-05-19 14:26:00,
2013-05-19 10:27:00,53.9,46.5,30.26,NE,48,0.0,10.0,76,0.00,,---,0.00,VWS V14.01,2013-05-19 14:27:00,
2013-05-19 10:28:00,54.1,46.7,30.26,NE,55,4.0,10.0,76,0.00,,---,0.00,VWS V14.01,2013-05-19 14:28:00,
2013-05-19 10:29:00,54.1,46.4,30.26,East,92,12.0,12.0,75,0.00,,---,0.00,VWS V14.01,2013-05-19 14:29:00,
2013-05-19 10:30:00,53.9,45.8,30.26,East,92,10.0,12.0,74,0.00,,---,0.00,VWS V14.01,2013-05-19 14:30:00,
2013-05-19 10:31:00,53.9,46.2,30.26,East,80,8.0,10.0,75,0.00,,---,0.00,VWS V14.01,2013-05-19 14:31:00,
2013-05-19 10:32:00,53.9,46.2,30.26,East,82,10.0,10.0,75,0.00,,---,0.00,VWS V14.01,2013-05-19 14:32:00,
2013-05-19 10:33:00,53.9,46.2,30.26,ENE,57,6.0,10.0,75,0.00,,---,0.00,VWS V14.01,2013-05-19 14:33:00,
2013-05-19 10:34:00,53.9,45.8,30.26,NE,39,4.0,10.0,74,0.00,,---,0.00,VWS V14.01,2013-05-19 14:34:00,
2013-05-19 10:35:00,54.1,46.4,30.26,NE,53,6.0,10.0,75,0.00,,---,0.00,VWS V14.01,2013-05-19 14:35:00,
2013-05-19 10:36:00,54.1,46.4,30.26,ENE,58,6.0,10.0,75,0.00,,---,0.00,VWS V14.01,2013-05-19 14:36:00,
2013-05-19 10:37:00,53.9,46.2,30.26,NE,45,8.0,10.0,75,0.00,,---,0.00,VWS V14.01,2013-05-19 14:37:00,
2013-05-19 10:38:00,53.8,46.1,30.26,NE,36,6.0,10.0,75,0.00,,---,0.00,VWS V14.01,2013-05-19 14:38:00,
2013-05-19 10:39:00,53.8,46.8,30.26,ENE,57,9.0,11.0,77,0.00,,---,0.00,VWS V14.01,2013-05-19 14:39:00,
2013-05-19 10:40:00,53.6,46.2,30.26,NE,55,7.0,11.0,76,0.00,,---,0.00,VWS V14.01,2013-05-19 14:40:00,
2013-05-19 10:41:00,53.5,45.8,30.26,NE,49,3.0,11.0,75,0.00,,---,0.00,VWS V14.01,2013-05-19 14:41:00,
2013-05-19 10:42:00,53.5,46.1,30.26,NNE,28,8.0,11.0,76,0.00,,---,0.00,VWS V14.01,2013-05-19 14:42:00,
2013-05-19 10:43:00,53.5,46.5,30.26,ENE,77,11.0,11.0,77,0.00,,---,0.00,VWS V14.01,2013-05-19 14:43:00,
2013-05-19 10:44:00,53.5,46.5,30.26,NE,36,7.0,11.0,77,0.00,,---,0.00,VWS V14.01,2013-05-19 14:44:00,
2013-05-19 10:45:00,53.6,46.6,30.26,ENE,63,10.0,11.0,77,0.00,,---,0.00,VWS V14.01,2013-05-19 14:45:00,
2013-05-19 10:46:00,53.6,46.2,30.26,ENE,78,6.0,11.0,76,0.00,,---,0.00,VWS V14.01,2013-05-19 14:46:00,
2013-05-19 10:47:00,53.8,46.4,30.26,ENE,70,5.0,11.0,76,0.00,,---,0.00,VWS V14.01,2013-05-19 14:47:00,
2013-05-19 10:48:00,53.8,46.1,30.26,ENE,60,5.0,11.0,75,0.00,,---,0.00,VWS V14.01,2013-05-19 14:48:00,
2013-05-19 10:49:00,53.6,46.2,30.26,NE,35,9.0,11.0,76,0.00,,---,0.00,VWS V14.01,2013-05-19 14:49:00,
2013-05-19 10:50:00,53.6,46.2,30.26,NE,54,6.0,11.0,76,0.00,,---,0.00,VWS V14.01,2013-05-19 14:50:00,
2013-05-19 10:51:00,53.5,46.1,30.26,NE,43,7.0,11.0,76,0.00,,---,0.00,VWS V14.01,2013-05-19 14:51:00,
2013-05-19 10:52:00,53.5,46.1,30.26,NE,47,9.0,11.0,76,0.00,,---,0.00,VWS V14.01,2013-05-19 14:52:00,
2013-05-19 10:53:00,53.3,46.6,30.26,NE,38,7.0,11.0,78,0.00,,---,0.00,VWS V14.01,2013-05-19 14:53:00,
2013-05-19 10:54:00,53.3,46.6,30.26,NE,52,7.0,11.0,78,0.00,,---,0.00,VWS V14.01,2013-05-19 14:54:00,
2013-05-19 10:55:00,53.3,46.3,30.26,NE,44,9.0,11.0,77,0.00,,---,0.00,VWS V14.01,2013-05-19 14:55:00,
2013-05-19 10:56:00,53.3,46.3,30.26,ENE,68,6.0,11.0,77,0.00,,---,0.00,VWS V14.01,2013-05-19 14:56:00,
2013-05-19 10:57:00,53.3,46.3,30.26,NE,51,6.0,11.0,77,0.00,,---,0.00,VWS V14.01,2013-05-19 14:57:00,
2013-05-19 10:58:00,53.3,46.6,30.26,ENE,61,8.0,11.0,78,0.00,,---,0.00,VWS V14.01,2013-05-19 14:58:00,
2013-05-19 10:59:00,53.3,45.9,30.26,NE,55,6.0,11.0,76,0.00,,---,0.00,VWS V14.01,2013-05-19 14:59:00,
2013-05-19 11:00:00,53.3,45.6,30.26,ENE,57,4.0,11.0,75,0.00,,---,0.00,VWS V14.01,2013-05-19 15:00:00,
2013-05-19 11:01:00,53.5,46.5,30.26,ENE,69,7.0,9.0,77,0.00,,---,0.00,VWS V14.01,2013-05-19 15:01:00,
2013-05-19 11:02:00,53.5,45.8,30.26,NE,56,5.0,9.0,75,0.00,,---,0.00,VWS V14.01,2013-05-19 15:02:00,
2013-05-19 11:03:00,53.6,46.6,30.26,NE,53,5.0,9.0,77,0.00,,---,0.00,VWS V14.01,2013-05-19 15:03:00,
2013-05-19 11:04:00,53.6,46.2,30.26,NE,40,7.0,9.0,76,0.00,,---,0.00,VWS V14.01,2013-05-19 15:04:00,
2013-05-19 11:05:00,53.8,46.1,30.26,NE,51,8.0,10.0,75,0.00,,---,0.00,VWS V14.01,2013-05-19 15:05:00,
2013-05-19 11:06:00,53.8,46.4,30.26,NE,48,6.0,10.0,76,0.00,,---,0.00,VWS V14.01,2013-05-19 15:06:00,
2013-05-19 11:07:00,53.8,46.4,30.26,NE,45,7.0,10.0,76,0.00,,---,0.00,VWS V14.01,2013-05-19 15:07:00,
2013-05-19 11:08:00,53.9,46.5,30.26,ENE,63,7.0,10.0,76,0.00,,---,0.00,VWS V14.01,2013-05-19 15:08:00,
2013-05-19 11:09:00,53.9,46.5,30.26,ENE,63,5.0,10.0,76,0.00,,---,0.00,VWS V14.01,2013-05-19 15:09:00,
2013-05-19 11:10:00,54.1,47.4,30.26,ENE,70,6.0,10.0,78,0.00,,---,0.00,VWS V14.01,2013-05-19 15:10:00,
2013-05-19 11:11:00,54.1,46.7,30.26,NE,56,6.0,10.0,76,0.00,,---,0.00,VWS V14.01,2013-05-19 15:11:00,
2013-05-19 11:12:00,54.2,46.5,30.26,ENE,58,5.0,10.0,75,0.00,,---,0.00,VWS V14.01,2013-05-19 15:12:00,
2013-05-19 11:13:00,54.2,46.5,30.26,ENE,71,5.0,10.0,75,0.00,,---,0.00,VWS V14.01,2013-05-19 15:13:00,
2013-05-19 11:14:00,54.4,46.7,30.26,ENE,70,5.0,10.0,75,0.00,,---,0.00,VWS V14.01,2013-05-19 15:14:00,
2013-05-19 11:15:00,54.4,46.3,30.26,NE,56,7.0,10.0,74,0.00,,---,0.00,VWS V14.01,2013-05-19 15:15:00,
2013-05-19 11:16:00,54.4,46.7,30.26,NE,55,6.0,10.0,75,0.00,,---,0.00,VWS V14.01,2013-05-19 15:16:00,
2013-05-19 11:17:00,54.4,46.3,30.26,ENE,71,6.0,10.0,74,0.00,,---,0.00,VWS V14.01,2013-05-19 15:17:00,
2013-05-19 11:18:00,54.4,46.7,30.26,NE,43,4.0,10.0,75,0.00,,---,0.00,VWS V14.01,2013-05-19 15:18:00,
2013-05-19 11:19:00,54.4,46.7,30.26,NE,52,3.0,10.0,75,0.00,,---,0.00,VWS V14.01,2013-05-19 15:19:00,
2013-05-19 11:20:00,54.5,47.1,30.26,ENE,59,4.0,10.0,76,0.00,,---,0.00,VWS V14.01,2013-05-19 15:20:00,
2013-05-19 11:21:00,54.5,46.4,30.26,NE,52,5.0,10.0,74,0.00,,---,0.00,VWS V14.01,2013-05-19 15:21:00,
2013-05-19 11:22:00,54.5,47.5,30.26,ENE,59,5.0,10.0,77,0.00,,---,0.00,VWS V14.01,2013-05-19 15:22:00,
2013-05-19 11:23:00,54.7,46.9,30.26,East,81,8.0,10.0,75,0.00,,---,0.00,VWS V14.01,2013-05-19 15:23:00,
2013-05-19 11:24:00,54.7,46.9,30.26,ENE,58,7.0,10.0,75,0.00,,---,0.00,VWS V14.01,2013-05-19 15:24:00,
2013-05-19 11:25:00,54.8,47.0,30.26,NE,55,7.0,10.0,75,0.00,,---,0.00,VWS V14.01,2013-05-19 15:25:00,
2013-05-19 11:26:00,54.8,47.0,30.26,ENE,57,6.0,10.0,75,0.00,,---,0.00,VWS V14.01,2013-05-19 15:26:00,
2013-05-19 11:27:00,55.0,47.2,30.26,ENE,65,8.0,10.0,75,0.00,,---,0.00,VWS V14.01,2013-05-19 15:27:00,
2013-05-19 11:28:00,55.0,46.9,30.26,NE,55,7.0,10.0,74,0.00,,---,0.00,VWS V14.01,2013-05-19 15:28:00,
2013-05-19 11:29:00,55.0,46.9,30.26,ENE,63,8.0,10.0,74,0.00,,---,0.00,VWS V14.01,2013-05-19 15:29:00,
2013-05-19 11:30:00,55.0,46.5,30.26,NE,53,7.0,10.0,73,0.00,,---,0.00,VWS V14.01,2013-05-19 15:30:00,
2013-05-19 11:31:00,55.1,46.6,30.26,ENE,75,6.0,7.0,73,0.00,,---,0.00,VWS V14.01,2013-05-19 15:31:00,
2013-05-19 11:32:00,55.3,47.2,30.26,ENE,71,6.0,7.0,74,0.00,,---,0.00,VWS V14.01,2013-05-19 15:32:00,
2013-05-19 11:33:00,55.3,46.8,30.26,ENE,64,4.0,7.0,73,0.00,,---,0.00,VWS V14.01,2013-05-19 15:33:00,
2013-05-19 11:34:00,55.4,47.6,30.26,ENE,60,5.0,7.0,75,0.00,,---,0.00,VWS V14.01,2013-05-19 15:34:00,
2013-05-19 11:35:00,55.4,47.3,30.26,ENE,65,6.0,7.0,74,0.00,,---,0.00,VWS V14.01,2013-05-19 15:35:00,
2013-05-19 11:36:00,55.6,46.7,30.26,NE,56,5.0,7.0,72,0.00,,---,0.00,VWS V14.01,2013-05-19 15:36:00,
2013-05-19 11:37:00,55.6,47.1,30.26,NE,40,7.0,7.0,73,0.00,,---,0.00,VWS V14.01,2013-05-19 15:37:00,
2013-05-19 11:38:00,55.6,47.1,30.26,NE,50,5.0,7.0,73,0.00,,---,0.00,VWS V14.01,2013-05-19 15:38:00,
2013-05-19 11:39:00,55.7,46.8,30.26,ENE,60,7.0,8.0,72,0.00,,---,0.00,VWS V14.01,2013-05-19 15:39:00,
2013-05-19 11:40:00,55.7,46.8,30.26,ENE,74,8.0,8.0,72,0.00,,---,0.00,VWS V14.01,2013-05-19 15:40:00,
2013-05-19 11:41:00,55.7,46.8,30.26,ENE,68,4.0,8.0,72,0.00,,---,0.00,VWS V14.01,2013-05-19 15:41:00,
2013-05-19 11:42:00,55.9,47.4,30.26,ENE,65,4.0,8.0,73,0.00,,---,0.00,VWS V14.01,2013-05-19 15:42:00,
2013-05-19 11:43:00,55.9,47.0,30.26,NE,49,6.0,8.0,72,0.00,,---,0.00,VWS V14.01,2013-05-19 15:43:00,
2013-05-19 11:44:00,56.0,46.7,30.25,NE,55,6.0,9.0,71,0.00,,---,0.00,VWS V14.01,2013-05-19 15:44:00,
2013-05-19 11:45:00,56.0,46.7,30.25,NE,55,5.0,9.0,71,0.00,,---,0.00,VWS V14.01,2013-05-19 15:45:00,
2013-05-19 11:46:00,56.0,46.7,30.25,NE,42,2.0,9.0,71,0.00,,---,0.00,VWS V14.01,2013-05-19 15:46:00,
2013-05-19 11:47:00,56.2,47.7,30.25,ENE,60,4.0,9.0,73,0.00,,---,0.00,VWS V14.01,2013-05-19 15:47:00,
2013-05-19 11:48:00,56.3,47.8,30.25,ENE,63,6.0,9.0,73,0.00,,---,0.00,VWS V14.01,2013-05-19 15:48:00,
2013-05-19 11:49:00,56.3,47.4,30.25,ENE,58,6.0,9.0,72,0.00,,---,0.00,VWS V14.01,2013-05-19 15:49:00,
2013-05-19 11:50:00,56.3,47.0,30.25,NE,51,6.0,9.0,71,0.00,,---,0.00,VWS V14.01,2013-05-19 15:50:00,
2013-05-19 11:51:00,56.3,47.4,30.25,NE,43,4.0,9.0,72,0.00,,---,0.00,VWS V14.01,2013-05-19 15:51:00,
2013-05-19 11:52:00,56.5,48.0,30.25,NE,50,6.0,9.0,73,0.00,,---,0.00,VWS V14.01,2013-05-19 15:52:00,
2013-05-19 11:53:00,56.5,47.2,30.25,NE,51,4.0,9.0,71,0.00,,---,0.00,VWS V14.01,2013-05-19 15:53:00,
2013-05-19 11:54:00,56.5,47.6,30.25,NE,43,3.0,9.0,72,0.00,,---,0.00,VWS V14.01,2013-05-19 15:54:00,
2013-05-19 11:55:00,56.5,47.6,30.25,NE,40,6.0,9.0,72,0.00,,---,0.00,VWS V14.01,2013-05-19 15:55:00,
2013-05-19 11:56:00,56.6,47.3,30.25,NE,51,6.0,9.0,71,0.00,,---,0.00,VWS V14.01,2013-05-19 15:56:00,
2013-05-19 11:57:00,56.6,47.7,30.25,ENE,58,6.0,9.0,72,0.00,,---,0.00,VWS V14.01,2013-05-19 15:57:00,
2013-05-19 11:58:00,56.6,47.7,30.25,NE,56,7.0,10.0,72,0.00,,---,0.00,VWS V14.01,2013-05-19 15:58:00,
2013-05-19 11:59:00,56.6,47.3,30.25,ENE,72,7.0,10.0,71,0.00,,---,0.00,VWS V14.01,2013-05-19 15:59:00,
2013-05-19 12:00:00,56.6,47.3,30.25,ENE,68,9.0,10.0,71,0.00,,---,0.00,VWS V14.01,2013-05-19 16:00:00,
2013-05-19 12:01:00,56.6,46.9,30.25,ENE,67,6.0,9.0,70,0.00,,---,0.00,VWS V14.01,2013-05-19 16:01:00,
2013-05-19 12:02:00,56.7,47.4,30.25,ENE,61,7.0,9.0,71,0.00,,---,0.00,VWS V14.01,2013-05-19 16:02:00,
2013-05-19 12:03:00,56.7,47.4,30.25,NE,54,8.0,9.0,71,0.00,,---,0.00,VWS V14.01,2013-05-19 16:03:00,
2013-05-19 12:04:00,56.7,47.4,30.25,ENE,67,8.0,9.0,71,0.00,,---,0.00,VWS V14.01,2013-05-19 16:04:00,
2013-05-19 12:05:00,56.7,47.4,30.25,ENE,65,7.0,10.0,71,0.00,,---,0.00,VWS V14.01,2013-05-19 16:05:00,
2013-05-19 12:06:00,56.7,47.4,30.25,ENE,60,8.0,10.0,71,0.00,,---,0.00,VWS V14.01,2013-05-19 16:06:00,
2013-05-19 12:07:00,56.7,47.0,30.25,ENE,61,7.0,10.0,70,0.00,,---,0.00,VWS V14.01,2013-05-19 16:07:00,
2013-05-19 12:08:00,56.7,47.4,30.25,ENE,59,5.0,10.0,71,0.00,,---,0.00,VWS V14.01,2013-05-19 16:08:00,
2013-05-19 12:09:00,56.7,47.0,30.25,ENE,69,9.0,10.0,70,0.00,,---,0.00,VWS V14.01,2013-05-19 16:09:00,
2013-05-19 12:10:00,56.7,47.4,30.25,ENE,59,9.0,10.0,71,0.00,,---,0.00,VWS V14.01,2013-05-19 16:10:00,
2013-05-19 12:11:00,56.9,47.6,30.25,ENE,57,5.0,10.0,71,0.00,,---,0.00,VWS V14.01,2013-05-19 16:11:00,
2013-05-19 12:12:00,56.9,47.6,30.25,NE,47,8.0,10.0,71,0.00,,---,0.00,VWS V14.01,2013-05-19 16:12:00,
2013-05-19 12:13:00,56.9,47.2,30.25,NE,48,6.0,10.0,70,0.00,,---,0.00,VWS V14.01,2013-05-19 16:13:00,
2013-05-19 12:14:00,56.9,48.0,30.24,NE,50,4.0,10.0,72,0.00,,---,0.00,VWS V14.01,2013-05-19 16:14:00,
2013-05-19 18:06:00,56.9,52.1,30.17,ENE,75,0.0,0.0,84,0.00,,---,0.01,VWS V14.01,2013-05-19 22:06:00,
2013-05-19 18:07:00,56.9,52.1,30.17,ENE,75,0.0,0.0,84,0.01,,---,0.01,VWS V14.01,2013-05-19 22:07:00,
2013-05-19 18:19:00,56.7,51.9,30.17,ENE,75,0.0,0.0,84,0.01,,---,0.01,VWS V14.01,2013-05-19 22:19:00,
2013-05-19 20:31:00,54.4,52.1,30.16,ENE,75,3.0,3.0,92,0.10,,---,0.10,VWS V14.01,2013-05-20 00:31:00,
2013-05-19 20:36:00,54.4,52.4,30.16,ENE,75,3.0,4.0,93,0.00,,---,0.10,VWS V14.01,2013-05-20 00:36:00,
2013-05-19 20:41:00,54.4,52.4,30.16,ENE,75,3.0,4.0,93,0.01,,---,0.11,VWS V14.01,2013-05-20 00:41:00,
2013-05-19 20:46:00,54.4,52.4,30.17,ENE,75,2.0,4.0,93,0.01,,---,0.11,VWS V14.01,2013-05-20 00:46:00,
2013-05-19 20:51:00,54.2,52.2,30.17,ENE,75,3.0,4.0,93,0.02,,---,0.12,VWS V14.01,2013-05-20 00:51:00,
2013-05-19 20:56:00,54.1,52.1,30.17,ENE,75,2.0,4.0,93,0.02,,---,0.12,VWS V14.01,2013-05-20 00:56:00,
2013-05-19 21:01:00,54.1,52.1,30.17,ENE,75,0.0,3.0,93,0.02,,---,0.12,VWS V14.01,2013-05-20 01:01:00,
2013-05-19 21:06:00,53.9,51.9,30.17,ENE,75,4.0,4.0,93,0.03,,---,0.13,VWS V14.01,2013-05-20 01:06:00,
2013-05-19 21:11:00,53.9,51.9,30.17,ENE,75,4.0,5.0,93,0.03,,---,0.13,VWS V14.01,2013-05-20 01:11:00,
2013-05-19 21:16:00,53.8,51.8,30.16,ENE,75,0.0,5.0,93,0.03,,---,0.13,VWS V14.01,2013-05-20 01:16:00,
2013-05-19 21:21:00,53.8,51.8,30.16,ENE,75,0.0,5.0,93,0.03,,---,0.13,VWS V14.01,2013-05-20 01:21:00,
2013-05-19 21:26:00,53.6,51.6,30.16,ENE,75,2.0,5.0,93,0.04,,---,0.14,VWS V14.01,2013-05-20 01:26:00,
2013-05-19 21:32:00,53.6,51.6,30.17,ENE,75,0.0,2.0,93,0.04,,---,0.14,VWS V14.01,2013-05-20 01:32:00,
2013-05-19 21:37:00,53.6,51.9,30.17,ENE,75,3.0,3.0,94,0.04,,---,0.14,VWS V14.01,2013-05-20 01:37:00,
2013-05-19 21:42:00,53.6,51.9,30.17,ENE,75,1.0,3.0,94,0.04,,---,0.14,VWS V14.01,2013-05-20 01:42:00,
2013-05-19 21:47:00,53.6,51.9,30.16,ENE,75,1.0,3.0,94,0.05,,---,0.15,VWS V14.01,2013-05-20 01:47:00,
2013-05-19 21:52:00,53.6,51.9,30.16,ENE,75,0.0,3.0,94,0.05,,---,0.15,VWS V14.01,2013-05-20 01:52:00,
2013-05-19 21:57:00,53.6,51.9,30.16,ENE,75,0.0,3.0,94,0.06,,---,0.16,VWS V14.01,2013-05-20 01:57:00,
2013-05-19 22:02:00,53.6,51.9,30.16,ENE,75,0.0,0.0,94,0.05,,---,0.17,VWS V14.01,2013-05-20 02:02:00,
2013-05-19 22:07:00,53.6,51.9,30.16,ENE,75,0.0,2.0,94,0.06,,---,0.18,VWS V14.01,2013-05-20 02:07:00,
2013-05-19 22:12:00,53.6,51.9,30.16,ENE,75,3.0,4.0,94,0.06,,---,0.18,VWS V14.01,2013-05-20 02:12:00,
2013-05-19 22:17:00,53.8,52.1,30.16,East,82,4.0,5.0,94,0.07,,---,0.19,VWS V14.01,2013-05-20 02:17:00,
2013-05-19 22:22:00,53.6,51.9,30.16,East,82,0.0,5.0,94,0.07,,---,0.19,VWS V14.01,2013-05-20 02:22:00,
2013-05-19 22:27:00,53.6,51.9,30.16,East,82,0.0,5.0,94,0.08,,---,0.20,VWS V14.01,2013-05-20 02:27:00,
2013-05-19 22:32:00,53.5,51.8,30.15,East,82,0.0,3.0,94,0.07,,---,0.21,VWS V14.01,2013-05-20 02:32:00,
2013-05-19 22:37:00,53.5,51.8,30.15,East,82,2.0,3.0,94,0.07,,---,0.21,VWS V14.01,2013-05-20 02:37:00,
2013-05-19 22:42:00,53.5,51.8,30.15,East,82,3.0,5.0,94,0.07,,---,0.21,VWS V14.01,2013-05-20 02:42:00,
2013-05-19 22:47:00,53.5,51.8,30.15,East,82,0.0,5.0,94,0.08,,---,0.22,VWS V14.01,2013-05-20 02:47:00,
2013-05-19 22:52:00,53.3,51.6,30.15,East,82,1.0,5.0,94,0.09,,---,0.23,VWS V14.01,2013-05-20 02:52:00,
2013-05-19 22:57:00,53.3,51.6,30.15,East,82,2.0,5.0,94,0.10,,---,0.24,VWS V14.01,2013-05-20 02:57:00,
2013-05-19 23:03:00,53.5,51.8,30.14,East,82,3.0,4.0,94,0.08,,---,0.25,VWS V14.01,2013-05-20 03:03:00,
2013-05-19 23:08:00,53.5,51.8,30.14,NNE,29,0.0,4.0,94,0.09,,---,0.26,VWS V14.01,2013-05-20 03:08:00,
2013-05-19 23:13:00,53.3,51.6,30.14,ENE,59,0.0,4.0,94,0.10,,---,0.27,VWS V14.01,2013-05-20 03:13:00,
2013-05-19 23:18:00,53.3,51.6,30.14,ENE,59,0.0,4.0,94,0.11,,---,0.28,VWS V14.01,2013-05-20 03:18:00,
2013-05-19 23:23:00,53.5,51.8,30.14,ENE,59,0.0,4.0,94,0.13,,---,0.30,VWS V14.01,2013-05-20 03:23:00,
2013-05-19 23:28:00,53.5,51.8,30.14,ENE,59,0.0,4.0,94,0.14,,---,0.31,VWS V14.01,2013-05-20 03:28:00,
2013-05-19 23:33:00,53.5,51.8,30.13,ENE,59,4.0,4.0,94,0.13,,---,0.33,VWS V14.01,2013-05-20 03:33:00,
2013-05-19 23:38:00,53.5,51.8,30.13,ENE,59,3.0,4.0,94,0.15,,---,0.35,VWS V14.01,2013-05-20 03:38:00,
2013-05-19 23:43:00,53.5,51.8,30.13,ENE,59,3.0,5.0,94,0.16,,---,0.36,VWS V14.01,2013-05-20 03:43:00,
2013-05-19 23:48:00,53.3,51.6,30.12,ENE,59,3.0,5.0,94,0.17,,---,0.37,VWS V14.01,2013-05-20 03:48:00,
2013-05-19 23:53:00,53.5,51.8,30.12,ENE,59,3.0,5.0,94,0.18,,---,0.38,VWS V14.01,2013-05-20 03:53:00,
2013-05-19 23:58:00,53.3,51.3,30.12,ENE,60,3.0,6.0,93,0.19,,---,0.39,VWS V14.01,2013-05-20 03:58:00,